Time,TemperatureF,DewpointF,PressureIn,WindDirection,WindDirectionDegrees,WindSpeedMPH,WindSpeedGustMPH,Humidity,HourlyPrecipIn,Conditions,Clouds,dailyrainin,SoftwareType,DateUTC
2013-04-17 00:01:00,42.6,33.5,30.13,North,357,1.0,1.0,70,0.00,,---,0.00,VWS V14.01,2013-04-17 05:01:00,
2013-04-17 00:03:00,42.6,33.5,30.13,North,7,4.0,5.0,70,0.00,,---,0.00,VWS V14.01,2013-04-17 05:03:00,
2013-04-17 00:04:00,42.6,33.5,30.13,NNW,337,0.0,4.0,70,0.00,,---,0.00,VWS V14.01,2013-04-17 05:04:00,
2013-04-17 00:06:00,42.8,33.7,30.13,North,358,3.0,3.0,70,0.00,,---,0.00,VWS V14.01,2013-04-17 05:06:00,
2013-04-17 00:08:00,42.8,33.7,30.13,North,358,1.0,2.0,70,0.00,,---,0.00,VWS V14.01,2013-04-17 05:08:00,
2013-04-17 00:09:00,42.8,33.7,30.13,North,358,1.0,2.0,70,0.00,,---,0.00,VWS V14.01,2013-04-17 05:09:00,
2013-04-17 00:10:00,42.8,33.7,30.13,North,358,0.0,1.0,70,0.00,,---,0.00,VWS V14.01,2013-04-17 05:10:00,
2013-04-17 00:12:00,42.8,33.7,30.13,North,357,0.0,1.0,70,0.00,,---,0.00,VWS V14.01,2013-04-17 05:12:00,
2013-04-17 00:13:00,42.8,33.7,30.13,North,357,0.0,2.0,70,0.00,,---,0.00,VWS V14.01,2013-04-17 05:13:00,
2013-04-17 00:15:00,42.8,33.7,30.13,ENE,77,2.0,2.0,70,0.00,,---,0.00,VWS V14.01,2013-04-17 05:15:00,
2013-04-17 00:16:00,42.8,33.7,30.13,ENE,77,2.0,2.0,70,0.00,,---,0.00,VWS V14.01,2013-04-17 05:16:00,
2013-04-17 00:17:00,42.8,33.7,30.13,North,0,1.0,4.0,70,0.00,,---,0.00,VWS V14.01,2013-04-17 05:17:00,
2013-04-17 00:18:00,42.8,33.7,30.13,North,0,2.0,4.0,70,0.00,,---,0.00,VWS V14.01,2013-04-17 05:18:00,
2013-04-17 00:21:00,42.8,34.1,30.13,NE,36,0.0,2.0,71,0.00,,---,0.00,VWS V14.01,2013-04-17 05:21:00,
2013-04-17 00:22:00,42.8,34.1,30.13,NE,35,0.0,2.0,71,0.00,,---,0.00,VWS V14.01,2013-04-17 05:22:00,
2013-04-17 00:23:00,42.8,34.1,30.13,ENE,62,2.0,2.0,71,0.00,,---,0.00,VWS V14.01,2013-04-17 05:23:00,
2013-04-17 00:26:00,42.8,34.1,30.13,NE,55,0.0,3.0,71,0.00,,---,0.00,VWS V14.01,2013-04-17 05:26:00,
2013-04-17 00:28:00,42.8,34.1,30.13,NNE,13,0.0,2.0,71,0.00,,---,0.00,VWS V14.01,2013-04-17 05:28:00,
2013-04-17 00:29:00,42.8,34.1,30.13,NNE,31,2.0,3.0,71,0.00,,---,0.00,VWS V14.01,2013-04-17 05:29:00,
2013-04-17 00:31:00,42.8,34.1,30.13,NNE,31,0.0,0.0,71,0.00,,---,0.00,VWS V14.01,2013-04-17 05:31:00,
2013-04-17 00:33:00,42.8,34.1,30.13,North,358,0.0,2.0,71,0.00,,---,0.00,VWS V14.01,2013-04-17 05:33:00,
2013-04-17 00:34:00,42.8,34.1,30.13,NE,43,1.0,3.0,71,0.00,,---,0.00,VWS V14.01,2013-04-17 05:34:00,
2013-04-17 00:36:00,42.8,34.1,30.13,NE,56,1.0,3.0,71,0.00,,---,0.00,VWS V14.01,2013-04-17 05:36:00,
2013-04-17 00:38:00,42.8,34.1,30.13,ENE,72,2.0,4.0,71,0.00,,---,0.00,VWS V14.01,2013-04-17 05:38:00,
2013-04-17 00:39:00,42.6,33.9,30.13,NNE,30,1.0,2.0,71,0.00,,---,0.00,VWS V14.01,2013-04-17 05:39:00,
2013-04-17 00:41:00,42.8,34.1,30.13,North,0,0.0,1.0,71,0.00,,---,0.00,VWS V14.01,2013-04-17 05:41:00,
2013-04-17 00:43:00,42.6,33.9,30.13,NW,321,2.0,2.0,71,0.00,,---,0.00,VWS V14.01,2013-04-17 05:43:00,
2013-04-17 00:44:00,42.6,33.9,30.14,NNW,347,0.0,1.0,71,0.00,,---,0.00,VWS V14.01,2013-04-17 05:44:00,
2013-04-17 00:46:00,42.6,33.9,30.14,ENE,68,0.0,3.0,71,0.00,,---,0.00,VWS V14.01,2013-04-17 05:46:00,
2013-04-17 00:48:00,42.6,33.9,30.14,NNE,26,0.0,3.0,71,0.00,,---,0.00,VWS V14.01,2013-04-17 05:48:00,
2013-04-17 00:50:00,42.6,33.9,30.14,North,0,1.0,1.0,71,0.00,,---,0.00,VWS V14.01,2013-04-17 05:50:00,
2013-04-17 00:51:00,42.6,33.9,30.14,North,0,0.0,1.0,71,0.00,,---,0.00,VWS V14.01,2013-04-17 05:51:00,
2013-04-17 00:54:00,42.6,34.2,30.14,NNE,19,0.0,3.0,72,0.00,,---,0.00,VWS V14.01,2013-04-17 05:54:00,
2013-04-17 00:57:00,42.6,33.9,30.14,NNE,13,1.0,1.0,71,0.00,,---,0.00,VWS V14.01,2013-04-17 05:57:00,
2013-04-17 00:58:00,42.6,33.9,30.13,North,1,2.0,2.0,71,0.00,,---,0.00,VWS V14.01,2013-04-17 05:58:00,
2013-04-17 00:59:00,42.6,33.9,30.13,North,1,0.0,2.0,71,0.00,,---,0.00,VWS V14.01,2013-04-17 05:59:00,
2013-04-17 01:00:00,42.6,34.2,30.13,North,1,2.0,2.0,72,0.00,,---,0.00,VWS V14.01,2013-04-17 06:00:00,
2013-04-17 01:03:00,42.8,34.4,30.13,North,0,2.0,2.0,72,0.00,,---,0.00,VWS V14.01,2013-04-17 06:03:00,
2013-04-17 01:04:00,42.8,34.4,30.13,North,0,2.0,2.0,72,0.00,,---,0.00,VWS V14.01,2013-04-17 06:04:00,
2013-04-17 01:05:00,42.6,34.2,30.13,NE,40,2.0,2.0,72,0.00,,---,0.00,VWS V14.01,2013-04-17 06:05:00,
2013-04-17 01:08:00,42.6,34.2,30.13,North,0,2.0,3.0,72,0.00,,---,0.00,VWS V14.01,2013-04-17 06:08:00,
2013-04-17 01:09:00,42.8,34.4,30.13,NNE,28,2.0,3.0,72,0.00,,---,0.00,VWS V14.01,2013-04-17 06:09:00,
2013-04-17 01:10:00,42.6,34.2,30.13,SE,127,1.0,3.0,72,0.00,,---,0.00,VWS V14.01,2013-04-17 06:10:00,
2013-04-17 01:12:00,42.6,34.2,30.13,NNE,14,3.0,3.0,72,0.00,,---,0.00,VWS V14.01,2013-04-17 06:12:00,
2013-04-17 01:13:00,42.6,34.2,30.13,NNW,347,2.0,3.0,72,0.00,,---,0.00,VWS V14.01,2013-04-17 06:13:00,
2013-04-17 01:14:00,42.6,34.2,30.14,North,356,1.0,3.0,72,0.00,,---,0.00,VWS V14.01,2013-04-17 06:14:00,
2013-04-17 01:17:00,42.6,34.2,30.14,ENE,75,3.0,3.0,72,0.00,,---,0.00,VWS V14.01,2013-04-17 06:17:00,
2013-04-17 01:18:00,42.6,34.2,30.14,NNW,345,3.0,3.0,72,0.00,,---,0.00,VWS V14.01,2013-04-17 06:18:00,
2013-04-17 01:19:00,42.6,34.2,30.14,North,0,2.0,3.0,72,0.00,,---,0.00,VWS V14.01,2013-04-17 06:19:00,
2013-04-17 01:20:00,42.6,34.2,30.14,NE,56,1.0,3.0,72,0.00,,---,0.00,VWS V14.01,2013-04-17 06:20:00,
2013-04-17 01:23:00,42.6,34.2,30.14,NW,316,2.0,2.0,72,0.00,,---,0.00,VWS V14.01,2013-04-17 06:23:00,
2013-04-17 01:24:00,42.6,34.2,30.14,NNE,27,2.0,3.0,72,0.00,,---,0.00,VWS V14.01,2013-04-17 06:24:00,
2013-04-17 01:25:00,42.6,34.2,30.14,North,0,2.0,2.0,72,0.00,,---,0.00,VWS V14.01,2013-04-17 06:25:00,
2013-04-17 01:29:00,42.6,34.2,30.14,North,9,3.0,4.0,72,0.00,,---,0.00,VWS V14.01,2013-04-17 06:29:00,
2013-04-17 01:31:00,42.6,34.2,30.14,North,356,1.0,2.0,72,0.00,,---,0.00,VWS V14.01,2013-04-17 06:31:00,
2013-04-17 01:34:00,42.8,34.4,30.14,NE,46,1.0,1.0,72,0.00,,---,0.00,VWS V14.01,2013-04-17 06:34:00,
2013-04-17 01:35:00,42.8,34.8,30.14,NE,39,1.0,2.0,73,0.00,,---,0.00,VWS V14.01,2013-04-17 06:35:00,
2013-04-17 01:36:00,42.8,34.8,30.14,North,6,2.0,3.0,73,0.00,,---,0.00,VWS V14.01,2013-04-17 06:36:00,
2013-04-17 01:37:00,42.8,34.4,30.14,North,1,0.0,2.0,72,0.00,,---,0.00,VWS V14.01,2013-04-17 06:37:00,
2013-04-17 01:40:00,42.8,34.8,30.14,East,92,3.0,3.0,73,0.00,,---,0.00,VWS V14.01,2013-04-17 06:40:00,
2013-04-17 01:41:00,42.8,34.8,30.14,NNE,13,2.0,3.0,73,0.00,,---,0.00,VWS V14.01,2013-04-17 06:41:00,
2013-04-17 01:42:00,42.8,34.8,30.14,North,0,3.0,3.0,73,0.00,,---,0.00,VWS V14.01,2013-04-17 06:42:00,
2013-04-17 01:43:00,42.6,34.6,30.14,North,358,2.0,3.0,73,0.00,,---,0.00,VWS V14.01,2013-04-17 06:43:00,
2013-04-17 01:46:00,42.6,34.6,30.13,North,8,0.0,1.0,73,0.00,,---,0.00,VWS V14.01,2013-04-17 06:46:00,
2013-04-17 01:47:00,42.6,34.9,30.13,North,6,1.0,2.0,74,0.00,,---,0.00,VWS V14.01,2013-04-17 06:47:00,
2013-04-17 01:48:00,42.6,34.9,30.13,North,0,0.0,0.0,74,0.00,,---,0.00,VWS V14.01,2013-04-17 06:48:00,
2013-04-17 01:49:00,42.6,34.9,30.13,NNE,31,1.0,1.0,74,0.00,,---,0.00,VWS V14.01,2013-04-17 06:49:00,
2013-04-17 01:51:00,42.6,34.9,30.13,NNE,14,0.0,0.0,74,0.00,,---,0.00,VWS V14.01,2013-04-17 06:51:00,
2013-04-17 01:54:00,42.6,34.9,30.13,NE,55,1.0,4.0,74,0.00,,---,0.00,VWS V14.01,2013-04-17 06:54:00,
2013-04-17 01:55:00,42.6,34.9,30.13,NNE,25,2.0,2.0,74,0.00,,---,0.00,VWS V14.01,2013-04-17 06:55:00,
2013-04-17 01:56:00,42.6,34.9,30.13,North,358,1.0,3.0,74,0.00,,---,0.00,VWS V14.01,2013-04-17 06:56:00,
2013-04-17 01:58:00,42.6,34.9,30.13,North,0,1.0,3.0,74,0.00,,---,0.00,VWS V14.01,2013-04-17 06:58:00,
2013-04-17 02:00:00,42.6,34.9,30.13,East,82,0.0,2.0,74,0.00,,---,0.00,VWS V14.01,2013-04-17 07:00:00,
2013-04-17 02:01:00,42.6,34.9,30.13,ENE,74,1.0,3.0,74,0.00,,---,0.00,VWS V14.01,2013-04-17 07:01:00,
2013-04-17 02:03:00,42.8,35.1,30.13,East,79,1.0,2.0,74,0.00,,---,0.00,VWS V14.01,2013-04-17 07:03:00,
2013-04-17 02:05:00,42.8,35.1,30.13,East,84,0.0,1.0,74,0.00,,---,0.00,VWS V14.01,2013-04-17 07:05:00,
2013-04-17 02:06:00,42.8,35.1,30.13,NE,47,1.0,2.0,74,0.00,,---,0.00,VWS V14.01,2013-04-17 07:06:00,
2013-04-17 02:07:00,42.8,35.1,30.13,NNE,30,2.0,2.0,74,0.00,,---,0.00,VWS V14.01,2013-04-17 07:07:00,
2013-04-17 02:08:00,42.8,35.1,30.13,NNE,15,1.0,2.0,74,0.00,,---,0.00,VWS V14.01,2013-04-17 07:08:00,
2013-04-17 02:10:00,42.9,35.2,30.13,North,0,3.0,4.0,74,0.00,,---,0.00,VWS V14.01,2013-04-17 07:10:00,
2013-04-17 02:11:00,42.9,34.8,30.13,North,0,1.0,4.0,73,0.00,,---,0.00,VWS V14.01,2013-04-17 07:11:00,
2013-04-17 02:12:00,42.9,34.8,30.13,NW,318,2.0,3.0,73,0.00,,---,0.00,VWS V14.01,2013-04-17 07:12:00,
2013-04-17 02:13:00,42.9,34.8,30.13,NW,318,0.0,2.0,73,0.00,,---,0.00,VWS V14.01,2013-04-17 07:13:00,
2013-04-17 02:17:00,42.9,34.8,30.14,East,82,1.0,3.0,73,0.00,,---,0.00,VWS V14.01,2013-04-17 07:17:00,
2013-04-17 02:19:00,42.9,34.8,30.14,North,358,2.0,2.0,73,0.00,,---,0.00,VWS V14.01,2013-04-17 07:19:00,
2013-04-17 02:21:00,42.9,35.2,30.14,North,10,0.0,2.0,74,0.00,,---,0.00,VWS V14.01,2013-04-17 07:21:00,
2013-04-17 02:23:00,42.9,35.2,30.14,NE,56,0.0,2.0,74,0.00,,---,0.00,VWS V14.01,2013-04-17 07:23:00,
2013-04-17 02:24:00,42.9,35.2,30.14,SE,146,0.0,4.0,74,0.00,,---,0.00,VWS V14.01,2013-04-17 07:24:00,
2013-04-17 02:26:00,42.9,35.2,30.14,NNE,27,2.0,3.0,74,0.00,,---,0.00,VWS V14.01,2013-04-17 07:26:00,
2013-04-17 02:27:00,42.9,35.2,30.14,North,0,2.0,2.0,74,0.00,,---,0.00,VWS V14.01,2013-04-17 07:27:00,
2013-04-17 02:28:00,42.9,35.2,30.13,North,0,4.0,4.0,74,0.00,,---,0.00,VWS V14.01,2013-04-17 07:28:00,
2013-04-17 02:29:00,42.9,35.2,30.13,North,0,1.0,3.0,74,0.00,,---,0.00,VWS V14.01,2013-04-17 07:29:00,
2013-04-17 02:32:00,42.9,35.2,30.13,ENE,72,0.0,2.0,74,0.00,,---,0.00,VWS V14.01,2013-04-17 07:32:00,
2013-04-17 02:33:00,42.9,35.2,30.13,North,0,1.0,3.0,74,0.00,,---,0.00,VWS V14.01,2013-04-17 07:33:00,
2013-04-17 02:34:00,42.9,35.2,30.13,North,0,1.0,3.0,74,0.00,,---,0.00,VWS V14.01,2013-04-17 07:34:00,
2013-04-17 02:37:00,42.9,35.2,30.13,North,4,2.0,4.0,74,0.00,,---,0.00,VWS V14.01,2013-04-17 07:37:00,
2013-04-17 02:39:00,42.9,35.5,30.13,North,9,0.0,0.0,75,0.00,,---,0.00,VWS V14.01,2013-04-17 07:39:00,
2013-04-17 02:40:00,42.9,35.5,30.13,North,10,1.0,2.0,75,0.00,,---,0.00,VWS V14.01,2013-04-17 07:40:00,
2013-04-17 02:42:00,42.9,35.5,30.13,North,4,4.0,4.0,75,0.00,,---,0.00,VWS V14.01,2013-04-17 07:42:00,
2013-04-17 02:45:00,42.9,35.5,30.12,NNE,13,1.0,1.0,75,0.00,,---,0.00,VWS V14.01,2013-04-17 07:45:00,
2013-04-17 02:46:00,42.9,35.5,30.12,NNE,14,0.0,2.0,75,0.00,,---,0.00,VWS V14.01,2013-04-17 07:46:00,
2013-04-17 02:48:00,42.8,35.8,30.12,NNE,13,2.0,2.0,76,0.00,,---,0.00,VWS V14.01,2013-04-17 07:48:00,
2013-04-17 02:50:00,42.8,35.8,30.12,North,358,3.0,3.0,76,0.00,,---,0.00,VWS V14.01,2013-04-17 07:50:00,
2013-04-17 02:53:00,42.8,35.8,30.12,North,8,0.0,2.0,76,0.00,,---,0.00,VWS V14.01,2013-04-17 07:53:00,
2013-04-17 02:54:00,42.8,35.8,30.12,NE,53,2.0,2.0,76,0.00,,---,0.00,VWS V14.01,2013-04-17 07:54:00,
2013-04-17 02:55:00,42.8,35.8,30.12,NNE,27,1.0,3.0,76,0.00,,---,0.00,VWS V14.01,2013-04-17 07:55:00,
2013-04-17 02:56:00,42.8,35.8,30.12,NNE,25,1.0,1.0,76,0.00,,---,0.00,VWS V14.01,2013-04-17 07:56:00,
2013-04-17 02:59:00,42.6,35.6,30.13,NNE,19,0.0,2.0,76,0.00,,---,0.00,VWS V14.01,2013-04-17 07:59:00,
2013-04-17 03:00:00,42.6,35.6,30.13,North,8,2.0,2.0,76,0.00,,---,0.00,VWS V14.01,2013-04-17 08:00:00,
2013-04-17 03:01:00,42.6,35.6,30.13,North,8,0.0,2.0,76,0.00,,---,0.00,VWS V14.01,2013-04-17 08:01:00,
2013-04-17 03:02:00,42.6,35.6,30.13,North,4,0.0,1.0,76,0.00,,---,0.00,VWS V14.01,2013-04-17 08:02:00,
2013-04-17 03:06:00,42.6,35.9,30.13,NNE,13,0.0,0.0,77,0.00,,---,0.00,VWS V14.01,2013-04-17 08:06:00,
2013-04-17 03:07:00,42.6,35.9,30.13,NNE,20,2.0,2.0,77,0.00,,---,0.00,VWS V14.01,2013-04-17 08:07:00,
2013-04-17 03:12:00,42.6,36.2,30.13,East,91,0.0,0.0,78,0.00,,---,0.00,VWS V14.01,2013-04-17 08:12:00,
2013-04-17 03:13:00,42.6,36.2,30.13,East,91,0.0,1.0,78,0.00,,---,0.00,VWS V14.01,2013-04-17 08:13:00,
2013-04-17 03:14:00,42.6,35.9,30.13,ENE,78,2.0,2.0,77,0.00,,---,0.00,VWS V14.01,2013-04-17 08:14:00,
2013-04-17 03:18:00,42.6,35.9,30.13,East,96,2.0,2.0,77,0.00,,---,0.00,VWS V14.01,2013-04-17 08:18:00,
2013-04-17 03:19:00,42.6,35.9,30.13,East,96,1.0,2.0,77,0.00,,---,0.00,VWS V14.01,2013-04-17 08:19:00,
2013-04-17 03:20:00,42.6,35.9,30.13,East,96,0.0,1.0,77,0.00,,---,0.00,VWS V14.01,2013-04-17 08:20:00,
2013-04-17 03:21:00,42.6,36.2,30.13,NNE,13,2.0,2.0,78,0.00,,---,0.00,VWS V14.01,2013-04-17 08:21:00,
2013-04-17 03:23:00,42.6,35.9,30.13,North,8,1.0,1.0,77,0.00,,---,0.00,VWS V14.01,2013-04-17 08:23:00,
2013-04-17 03:24:00,42.6,35.9,30.13,North,8,1.0,1.0,77,0.00,,---,0.00,VWS V14.01,2013-04-17 08:24:00,
2013-04-17 03:25:00,42.6,35.9,30.13,NE,53,2.0,3.0,77,0.00,,---,0.00,VWS V14.01,2013-04-17 08:25:00,
2013-04-17 03:26:00,42.6,35.9,30.13,NE,53,0.0,2.0,77,0.00,,---,0.00,VWS V14.01,2013-04-17 08:26:00,
2013-04-17 03:27:00,42.8,36.1,30.13,ENE,60,0.0,0.0,77,0.00,,---,0.00,VWS V14.01,2013-04-17 08:27:00,
2013-04-17 03:29:00,42.8,36.1,30.13,NNW,348,1.0,2.0,77,0.00,,---,0.00,VWS V14.01,2013-04-17 08:29:00,
2013-04-17 03:32:00,42.8,36.1,30.13,North,349,0.0,1.0,77,0.00,,---,0.00,VWS V14.01,2013-04-17 08:32:00,
2013-04-17 03:33:00,42.8,36.1,30.13,NNW,334,1.0,2.0,77,0.00,,---,0.00,VWS V14.01,2013-04-17 08:33:00,
2013-04-17 03:34:00,42.8,36.1,30.13,North,358,2.0,3.0,77,0.00,,---,0.00,VWS V14.01,2013-04-17 08:34:00,
2013-04-17 03:35:00,42.8,36.1,30.13,NE,44,1.0,2.0,77,0.00,,---,0.00,VWS V14.01,2013-04-17 08:35:00,
2013-04-17 03:38:00,42.8,36.4,30.13,North,5,4.0,5.0,78,0.00,,---,0.00,VWS V14.01,2013-04-17 08:38:00,
2013-04-17 03:39:00,42.8,36.4,30.13,North,0,0.0,4.0,78,0.00,,---,0.00,VWS V14.01,2013-04-17 08:39:00,
2013-04-17 03:40:00,42.8,36.4,30.13,North,0,1.0,1.0,78,0.00,,---,0.00,VWS V14.01,2013-04-17 08:40:00,
2013-04-17 03:44:00,42.6,36.2,30.13,North,2,0.0,0.0,78,0.00,,---,0.00,VWS V14.01,2013-04-17 08:44:00,
2013-04-17 03:45:00,42.6,36.2,30.13,North,2,2.0,2.0,78,0.00,,---,0.00,VWS V14.01,2013-04-17 08:45:00,
2013-04-17 03:46:00,42.5,36.1,30.13,North,4,1.0,3.0,78,0.00,,---,0.00,VWS V14.01,2013-04-17 08:46:00,
2013-04-17 03:47:00,42.5,36.1,30.13,NE,42,0.0,0.0,78,0.00,,---,0.00,VWS V14.01,2013-04-17 08:47:00,
2013-04-17 03:49:00,42.5,36.1,30.13,NE,42,1.0,1.0,78,0.00,,---,0.00,VWS V14.01,2013-04-17 08:49:00,
2013-04-17 03:50:00,42.5,36.5,30.13,NW,324,0.0,2.0,79,0.00,,---,0.00,VWS V14.01,2013-04-17 08:50:00,
2013-04-17 03:52:00,42.3,36.3,30.13,NNW,331,2.0,2.0,79,0.00,,---,0.00,VWS V14.01,2013-04-17 08:52:00,
2013-04-17 03:54:00,42.3,36.3,30.13,NNW,331,0.0,0.0,79,0.00,,---,0.00,VWS V14.01,2013-04-17 08:54:00,
2013-04-17 03:55:00,42.3,36.3,30.13,North,0,1.0,2.0,79,0.00,,---,0.00,VWS V14.01,2013-04-17 08:55:00,
2013-04-17 03:56:00,42.3,36.3,30.13,NE,34,0.0,0.0,79,0.00,,---,0.00,VWS V14.01,2013-04-17 08:56:00,
2013-04-17 03:57:00,42.3,36.3,30.13,NE,34,0.0,1.0,79,0.00,,---,0.00,VWS V14.01,2013-04-17 08:57:00,
2013-04-17 04:01:00,42.3,36.6,30.13,NE,52,0.0,0.0,80,0.00,,---,0.00,VWS V14.01,2013-04-17 09:01:00,
2013-04-17 04:02:00,42.3,36.6,30.13,NE,52,0.0,0.0,80,0.00,,---,0.00,VWS V14.01,2013-04-17 09:02:00,
2013-04-17 04:03:00,42.3,36.6,30.13,NE,52,0.0,0.0,80,0.00,,---,0.00,VWS V14.01,2013-04-17 09:03:00,
2013-04-17 04:06:00,42.3,36.6,30.13,North,356,1.0,3.0,80,0.00,,---,0.00,VWS V14.01,2013-04-17 09:06:00,
2013-04-17 04:07:00,42.3,36.6,30.13,East,100,2.0,2.0,80,0.00,,---,0.00,VWS V14.01,2013-04-17 09:07:00,
2013-04-17 04:08:00,42.3,36.6,30.13,East,100,0.0,2.0,80,0.00,,---,0.00,VWS V14.01,2013-04-17 09:08:00,
2013-04-17 04:10:00,42.3,36.6,30.13,ENE,63,1.0,4.0,80,0.00,,---,0.00,VWS V14.01,2013-04-17 09:10:00,
2013-04-17 04:11:00,42.3,36.6,30.13,ENE,63,0.0,1.0,80,0.00,,---,0.00,VWS V14.01,2013-04-17 09:11:00,
2013-04-17 04:12:00,42.5,36.8,30.13,East,93,1.0,1.0,80,0.00,,---,0.00,VWS V14.01,2013-04-17 09:12:00,
2013-04-17 04:13:00,42.5,36.8,30.13,East,93,0.0,2.0,80,0.00,,---,0.00,VWS V14.01,2013-04-17 09:13:00,
2013-04-17 04:17:00,42.5,36.5,30.13,East,83,0.0,0.0,79,0.00,,---,0.00,VWS V14.01,2013-04-17 09:17:00,
2013-04-17 04:19:00,42.5,36.5,30.13,East,83,0.0,0.0,79,0.00,,---,0.00,VWS V14.01,2013-04-17 09:19:00,
2013-04-17 04:20:00,42.5,36.5,30.13,NNE,20,1.0,2.0,79,0.00,,---,0.00,VWS V14.01,2013-04-17 09:20:00,
2013-04-17 04:22:00,42.6,36.5,30.13,NNE,20,0.0,2.0,79,0.00,,---,0.00,VWS V14.01,2013-04-17 09:22:00,
2013-04-17 04:23:00,42.6,36.5,30.13,NNE,20,0.0,1.0,79,0.00,,---,0.00,VWS V14.01,2013-04-17 09:23:00,
2013-04-17 04:25:00,42.6,36.2,30.13,NNE,32,1.0,1.0,78,0.00,,---,0.00,VWS V14.01,2013-04-17 09:25:00,
2013-04-17 04:27:00,42.6,36.2,30.13,NE,34,0.0,1.0,78,0.00,,---,0.00,VWS V14.01,2013-04-17 09:27:00,
2013-04-17 04:28:00,42.6,36.2,30.13,NNE,23,0.0,2.0,78,0.00,,---,0.00,VWS V14.01,2013-04-17 09:28:00,
2013-04-17 04:30:00,42.6,36.2,30.12,SSW,213,0.0,0.0,78,0.00,,---,0.00,VWS V14.01,2013-04-17 09:30:00,
2013-04-17 04:32:00,42.6,36.2,30.12,SSW,213,1.0,1.0,78,0.00,,---,0.00,VWS V14.01,2013-04-17 09:32:00,
2013-04-17 04:33:00,42.6,36.2,30.12,SW,214,0.0,1.0,78,0.00,,---,0.00,VWS V14.01,2013-04-17 09:33:00,
2013-04-17 04:34:00,42.6,36.2,30.12,SW,214,0.0,1.0,78,0.00,,---,0.00,VWS V14.01,2013-04-17 09:34:00,
2013-04-17 04:35:00,42.6,36.2,30.12,SW,214,0.0,0.0,78,0.00,,---,0.00,VWS V14.01,2013-04-17 09:35:00,
2013-04-17 04:36:00,42.6,36.2,30.12,SW,214,0.0,2.0,78,0.00,,---,0.00,VWS V14.01,2013-04-17 09:36:00,
2013-04-17 04:38:00,42.6,36.2,30.12,North,0,1.0,1.0,78,0.00,,---,0.00,VWS V14.01,2013-04-17 09:38:00,
2013-04-17 04:39:00,42.8,36.4,30.12,North,0,0.0,1.0,78,0.00,,---,0.00,VWS V14.01,2013-04-17 09:39:00,
2013-04-17 04:40:00,42.8,36.4,30.12,North,0,0.0,0.0,78,0.00,,---,0.00,VWS V14.01,2013-04-17 09:40:00,
2013-04-17 04:41:00,42.8,36.4,30.12,North,0,1.0,2.0,78,0.00,,---,0.00,VWS V14.01,2013-04-17 09:41:00,
2013-04-17 04:43:00,42.8,36.4,30.12,North,0,0.0,0.0,78,0.00,,---,0.00,VWS V14.01,2013-04-17 09:43:00,
2013-04-17 04:45:00,42.8,36.1,30.14,North,3,0.0,0.0,77,0.00,,---,0.00,VWS V14.01,2013-04-17 09:45:00,
2013-04-17 04:47:00,42.8,36.4,30.14,North,7,0.0,1.0,78,0.00,,---,0.00,VWS V14.01,2013-04-17 09:47:00,
2013-04-17 04:49:00,42.8,36.1,30.14,NE,41,0.0,2.0,77,0.00,,---,0.00,VWS V14.01,2013-04-17 09:49:00,
2013-04-17 04:50:00,42.9,36.2,30.14,NE,41,0.0,0.0,77,0.00,,---,0.00,VWS V14.01,2013-04-17 09:50:00,
2013-04-17 04:52:00,42.9,36.5,30.14,NE,41,0.0,1.0,78,0.00,,---,0.00,VWS V14.01,2013-04-17 09:52:00,
2013-04-17 04:53:00,42.9,36.5,30.14,NE,41,0.0,0.0,78,0.00,,---,0.00,VWS V14.01,2013-04-17 09:53:00,
2013-04-17 04:54:00,42.9,36.2,30.14,NE,41,0.0,0.0,77,0.00,,---,0.00,VWS V14.01,2013-04-17 09:54:00,
2013-04-17 04:55:00,42.9,36.2,30.14,NE,41,0.0,0.0,77,0.00,,---,0.00,VWS V14.01,2013-04-17 09:55:00,
2013-04-17 04:58:00,42.9,36.2,30.14,NE,45,0.0,0.0,77,0.00,,---,0.00,VWS V14.01,2013-04-17 09:58:00,
2013-04-17 04:59:00,42.9,36.5,30.11,NE,45,0.0,0.0,78,0.00,,---,0.00,VWS V14.01,2013-04-17 09:59:00,
2013-04-17 05:00:00,42.9,36.5,30.11,NE,45,0.0,0.0,78,0.00,,---,0.00,VWS V14.01,2013-04-17 10:00:00,
2013-04-17 05:01:00,42.9,36.5,30.11,North,0,0.0,0.0,78,0.00,,---,0.00,VWS V14.01,2013-04-17 10:01:00,
2013-04-17 05:02:00,42.9,36.5,30.11,North,2,0.0,0.0,78,0.00,,---,0.00,VWS V14.01,2013-04-17 10:02:00,
2013-04-17 05:05:00,42.9,36.5,30.11,North,7,1.0,7.0,78,0.00,,---,0.00,VWS V14.01,2013-04-17 10:05:00,
2013-04-17 05:07:00,42.9,36.5,30.11,North,8,0.0,0.0,78,0.00,,---,0.00,VWS V14.01,2013-04-17 10:07:00,
2013-04-17 05:08:00,42.9,36.5,30.11,North,8,2.0,2.0,78,0.00,,---,0.00,VWS V14.01,2013-04-17 10:08:00,
2013-04-17 05:09:00,42.9,36.2,30.11,North,8,0.0,2.0,77,0.00,,---,0.00,VWS V14.01,2013-04-17 10:09:00,
2013-04-17 05:10:00,42.9,36.5,30.11,North,8,0.0,0.0,78,0.00,,---,0.00,VWS V14.01,2013-04-17 10:10:00,
2013-04-17 05:11:00,42.9,36.5,30.11,North,8,0.0,0.0,78,0.00,,---,0.00,VWS V14.01,2013-04-17 10:11:00,
2013-04-17 05:12:00,42.9,36.5,30.11,North,8,0.0,0.0,78,0.00,,---,0.00,VWS V14.01,2013-04-17 10:12:00,
2013-04-17 05:13:00,42.9,36.5,30.11,North,8,0.0,1.0,78,0.00,,---,0.00,VWS V14.01,2013-04-17 10:13:00,
2013-04-17 05:14:00,42.9,36.5,30.11,North,8,0.0,0.0,78,0.00,,---,0.00,VWS V14.01,2013-04-17 10:14:00,
2013-04-17 05:17:00,42.9,36.2,30.11,North,6,0.0,0.0,77,0.00,,---,0.00,VWS V14.01,2013-04-17 10:17:00,
2013-04-17 05:19:00,43.1,36.4,30.11,ENE,65,1.0,3.0,77,0.00,,---,0.00,VWS V14.01,2013-04-17 10:19:00,
2013-04-17 05:20:00,43.1,36.4,30.11,ENE,65,0.0,1.0,77,0.00,,---,0.00,VWS V14.01,2013-04-17 10:20:00,
2013-04-17 05:22:00,43.1,36.4,30.11,East,99,1.0,2.0,77,0.00,,---,0.00,VWS V14.01,2013-04-17 10:22:00,
2013-04-17 05:23:00,43.1,36.4,30.11,West,262,1.0,2.0,77,0.00,,---,0.00,VWS V14.01,2013-04-17 10:23:00,
2013-04-17 05:24:00,43.2,36.5,30.11,WSW,254,0.0,1.0,77,0.00,,---,0.00,VWS V14.01,2013-04-17 10:24:00,
2013-04-17 05:28:00,43.2,36.2,30.11,North,11,0.0,0.0,76,0.00,,---,0.00,VWS V14.01,2013-04-17 10:28:00,
2013-04-17 05:29:00,43.2,36.2,30.10,East,93,0.0,1.0,76,0.00,,---,0.00,VWS V14.01,2013-04-17 10:29:00,
2013-04-17 05:30:00,43.2,36.2,30.10,East,91,0.0,0.0,76,0.00,,---,0.00,VWS V14.01,2013-04-17 10:30:00,
2013-04-17 05:32:00,43.2,36.2,30.10,NNW,339,2.0,2.0,76,0.00,,---,0.00,VWS V14.01,2013-04-17 10:32:00,
2013-04-17 05:34:00,43.2,36.2,30.10,East,97,0.0,3.0,76,0.00,,---,0.00,VWS V14.01,2013-04-17 10:34:00,
2013-04-17 05:35:00,43.2,36.2,30.10,East,97,0.0,1.0,76,0.00,,---,0.00,VWS V14.01,2013-04-17 10:35:00,
2013-04-17 05:38:00,43.2,36.2,30.10,North,0,2.0,2.0,76,0.00,,---,0.00,VWS V14.01,2013-04-17 10:38:00,
2013-04-17 05:39:00,43.2,36.2,30.10,ESE,109,2.0,4.0,76,0.00,,---,0.00,VWS V14.01,2013-04-17 10:39:00,
2013-04-17 05:40:00,43.2,36.2,30.10,ESE,107,2.0,2.0,76,0.00,,---,0.00,VWS V14.01,2013-04-17 10:40:00,
2013-04-17 05:41:00,43.2,36.2,30.10,NE,50,0.0,2.0,76,0.00,,---,0.00,VWS V14.01,2013-04-17 10:41:00,
2013-04-17 05:42:00,43.2,36.2,30.10,ENE,69,2.0,2.0,76,0.00,,---,0.00,VWS V14.01,2013-04-17 10:42:00,
2013-04-17 05:43:00,43.2,36.2,30.10,ENE,70,0.0,1.0,76,0.00,,---,0.00,VWS V14.01,2013-04-17 10:43:00,
2013-04-17 05:44:00,43.2,36.2,30.10,ENE,70,0.0,1.0,76,0.00,,---,0.00,VWS V14.01,2013-04-17 10:44:00,
2013-04-17 05:45:00,43.2,36.2,30.10,ENE,62,2.0,2.0,76,0.00,,---,0.00,VWS V14.01,2013-04-17 10:45:00,
2013-04-17 05:46:00,43.2,36.2,30.10,ESE,121,1.0,2.0,76,0.00,,---,0.00,VWS V14.01,2013-04-17 10:46:00,
2013-04-17 05:48:00,43.2,36.2,30.10,ESE,121,1.0,1.0,76,0.00,,---,0.00,VWS V14.01,2013-04-17 10:48:00,
2013-04-17 05:49:00,43.3,36.3,30.10,ESE,121,0.0,1.0,76,0.00,,---,0.00,VWS V14.01,2013-04-17 10:49:00,
2013-04-17 05:50:00,43.3,36.3,30.10,ESE,115,2.0,2.0,76,0.00,,---,0.00,VWS V14.01,2013-04-17 10:50:00,
2013-04-17 05:55:00,43.5,36.5,30.10,ESE,113,0.0,1.0,76,0.00,,---,0.00,VWS V14.01,2013-04-17 10:55:00,
2013-04-17 05:56:00,43.5,36.5,30.10,ESE,113,1.0,3.0,76,0.00,,---,0.00,VWS V14.01,2013-04-17 10:56:00,
2013-04-17 06:00:00,43.5,36.5,30.10,ESE,119,1.0,2.0,76,0.00,,---,0.00,VWS V14.01,2013-04-17 11:00:00,
2013-04-17 06:01:00,43.6,36.5,30.10,East,96,0.0,0.0,76,0.00,,---,0.00,VWS V14.01,2013-04-17 11:01:00,
2013-04-17 06:02:00,43.6,36.5,30.10,East,97,0.0,1.0,76,0.00,,---,0.00,VWS V14.01,2013-04-17 11:02:00,
2013-04-17 06:03:00,43.6,36.5,30.10,East,98,2.0,2.0,76,0.00,,---,0.00,VWS V14.01,2013-04-17 11:03:00,
2013-04-17 06:05:00,43.6,36.5,30.10,ESE,102,0.0,1.0,76,0.00,,---,0.00,VWS V14.01,2013-04-17 11:05:00,
2013-04-17 06:07:00,43.6,36.5,30.10,East,98,3.0,4.0,76,0.00,,---,0.00,VWS V14.01,2013-04-17 11:07:00,
2013-04-17 06:09:00,43.6,36.5,30.10,NE,56,1.0,1.0,76,0.00,,---,0.00,VWS V14.01,2013-04-17 11:09:00,
2013-04-17 06:12:00,43.8,36.7,30.10,East,99,2.0,2.0,76,0.00,,---,0.00,VWS V14.01,2013-04-17 11:12:00,
2013-04-17 06:14:00,43.8,36.7,30.10,ENE,76,0.0,1.0,76,0.00,,---,0.00,VWS V14.01,2013-04-17 11:14:00,
2013-04-17 06:16:00,43.8,36.7,30.10,East,91,4.0,5.0,76,0.00,,---,0.00,VWS V14.01,2013-04-17 11:16:00,
2013-04-17 06:18:00,43.8,36.7,30.10,East,98,0.0,2.0,76,0.00,,---,0.00,VWS V14.01,2013-04-17 11:18:00,
2013-04-17 06:19:00,43.8,36.7,30.10,East,98,0.0,1.0,76,0.00,,---,0.00,VWS V14.01,2013-04-17 11:19:00,
2013-04-17 06:20:00,43.8,36.7,30.10,ESE,105,1.0,1.0,76,0.00,,---,0.00,VWS V14.01,2013-04-17 11:20:00,
2013-04-17 06:21:00,43.9,36.8,30.10,ESE,113,2.0,2.0,76,0.00,,---,0.00,VWS V14.01,2013-04-17 11:21:00,
2013-04-17 06:24:00,43.9,36.8,30.10,East,101,0.0,2.0,76,0.00,,---,0.00,VWS V14.01,2013-04-17 11:24:00,
2013-04-17 06:25:00,43.9,36.8,30.10,ESE,113,0.0,2.0,76,0.00,,---,0.00,VWS V14.01,2013-04-17 11:25:00,
2013-04-17 06:27:00,43.9,36.8,30.10,East,101,0.0,3.0,76,0.00,,---,0.00,VWS V14.01,2013-04-17 11:27:00,
2013-04-17 06:29:00,43.9,36.8,30.10,SSE,154,1.0,2.0,76,0.00,,---,0.00,VWS V14.01,2013-04-17 11:29:00,
2013-04-17 06:30:00,43.9,36.8,30.10,ESE,105,3.0,3.0,76,0.00,,---,0.00,VWS V14.01,2013-04-17 11:30:00,
2013-04-17 06:31:00,43.9,36.8,30.10,ESE,107,2.0,2.0,76,0.00,,---,0.00,VWS V14.01,2013-04-17 11:31:00,
2013-04-17 06:32:00,43.9,36.8,30.10,East,89,1.0,3.0,76,0.00,,---,0.00,VWS V14.01,2013-04-17 11:32:00,
2013-04-17 06:35:00,44.1,37.0,30.10,SE,145,1.0,2.0,76,0.00,,---,0.00,VWS V14.01,2013-04-17 11:35:00,
2013-04-17 06:36:00,44.1,37.0,30.10,East,99,3.0,3.0,76,0.00,,---,0.00,VWS V14.01,2013-04-17 11:36:00,
2013-04-17 06:37:00,44.1,37.0,30.10,ESE,109,1.0,1.0,76,0.00,,---,0.00,VWS V14.01,2013-04-17 11:37:00,
2013-04-17 06:38:00,44.1,37.0,30.10,East,94,2.0,2.0,76,0.00,,---,0.00,VWS V14.01,2013-04-17 11:38:00,
2013-04-17 06:39:00,44.1,37.0,30.10,East,101,2.0,3.0,76,0.00,,---,0.00,VWS V14.01,2013-04-17 11:39:00,
2013-04-17 06:41:00,44.1,37.0,30.10,East,94,1.0,2.0,76,0.00,,---,0.00,VWS V14.01,2013-04-17 11:41:00,
2013-04-17 06:42:00,44.1,37.0,30.10,SE,127,0.0,3.0,76,0.00,,---,0.00,VWS V14.01,2013-04-17 11:42:00,
2013-04-17 06:43:00,44.1,37.0,30.10,ESE,118,2.0,2.0,76,0.00,,---,0.00,VWS V14.01,2013-04-17 11:43:00,
2013-04-17 06:46:00,44.2,37.1,30.09,ENE,65,1.0,2.0,76,0.00,,---,0.00,VWS V14.01,2013-04-17 11:46:00,
2013-04-17 06:48:00,44.2,37.1,30.09,East,98,0.0,0.0,76,0.00,,---,0.00,VWS V14.01,2013-04-17 11:48:00,
2013-04-17 06:51:00,44.2,37.1,30.09,East,101,0.0,1.0,76,0.00,,---,0.00,VWS V14.01,2013-04-17 11:51:00,
2013-04-17 06:52:00,44.2,37.1,30.09,ESE,119,1.0,3.0,76,0.00,,---,0.00,VWS V14.01,2013-04-17 11:52:00,
2013-04-17 06:53:00,44.3,37.2,30.09,East,95,1.0,2.0,76,0.00,,---,0.00,VWS V14.01,2013-04-17 11:53:00,
2013-04-17 06:56:00,44.3,37.2,30.09,East,99,2.0,2.0,76,0.00,,---,0.00,VWS V14.01,2013-04-17 11:56:00,
2013-04-17 06:57:00,44.3,37.2,30.09,East,99,1.0,2.0,76,0.00,,---,0.00,VWS V14.01,2013-04-17 11:57:00,
2013-04-17 06:58:00,44.5,37.4,30.09,East,95,2.0,4.0,76,0.00,,---,0.00,VWS V14.01,2013-04-17 11:58:00,
2013-04-17 06:59:00,44.5,37.4,30.09,ESE,104,1.0,2.0,76,0.00,,---,0.00,VWS V14.01,2013-04-17 11:59:00,
2013-04-17 07:02:00,44.5,37.4,30.09,East,91,1.0,2.0,76,0.00,,---,0.00,VWS V14.01,2013-04-17 12:02:00,
2013-04-17 07:03:00,44.5,37.4,30.09,East,91,0.0,0.0,76,0.00,,---,0.00,VWS V14.01,2013-04-17 12:03:00,
2013-04-17 07:04:00,44.6,37.5,30.09,ESE,105,1.0,2.0,76,0.00,,---,0.00,VWS V14.01,2013-04-17 12:04:00,
2013-04-17 07:07:00,44.6,37.2,30.09,East,91,0.0,3.0,75,0.00,,---,0.00,VWS V14.01,2013-04-17 12:07:00,
2013-04-17 07:08:00,44.6,37.2,30.09,ESE,107,1.0,2.0,75,0.00,,---,0.00,VWS V14.01,2013-04-17 12:08:00,
2013-04-17 07:10:00,44.8,37.4,30.09,ESE,103,0.0,3.0,75,0.00,,---,0.00,VWS V14.01,2013-04-17 12:10:00,
2013-04-17 07:12:00,44.8,37.4,30.09,East,99,2.0,4.0,75,0.00,,---,0.00,VWS V14.01,2013-04-17 12:12:00,
2013-04-17 07:16:00,44.8,37.4,30.09,ESE,115,0.0,1.0,75,0.00,,---,0.00,VWS V14.01,2013-04-17 12:16:00,
2013-04-17 07:17:00,44.9,37.5,30.09,ESE,115,2.0,2.0,75,0.00,,---,0.00,VWS V14.01,2013-04-17 12:17:00,
2013-04-17 07:19:00,44.9,37.5,30.09,ENE,77,1.0,1.0,75,0.00,,---,0.00,VWS V14.01,2013-04-17 12:19:00,
2013-04-17 07:20:00,44.9,37.5,30.09,East,82,0.0,1.0,75,0.00,,---,0.00,VWS V14.01,2013-04-17 12:20:00,
2013-04-17 07:21:00,44.9,37.8,30.09,East,98,0.0,1.0,76,0.00,,---,0.00,VWS V14.01,2013-04-17 12:21:00,
2013-04-17 07:22:00,44.9,37.8,30.09,ESE,112,1.0,1.0,76,0.00,,---,0.00,VWS V14.01,2013-04-17 12:22:00,
2013-04-17 07:25:00,44.9,37.8,30.09,East,91,1.0,2.0,76,0.00,,---,0.00,VWS V14.01,2013-04-17 12:25:00,
2013-04-17 07:27:00,45.1,38.0,30.09,East,91,0.0,1.0,76,0.00,,---,0.00,VWS V14.01,2013-04-17 12:27:00,
2013-04-17 07:28:00,45.1,38.0,30.08,East,88,0.0,3.0,76,0.00,,---,0.00,VWS V14.01,2013-04-17 12:28:00,
2013-04-17 07:29:00,45.1,38.0,30.08,East,88,1.0,3.0,76,0.00,,---,0.00,VWS V14.01,2013-04-17 12:29:00,
2013-04-17 07:32:00,45.1,38.0,30.08,East,100,1.0,3.0,76,0.00,,---,0.00,VWS V14.01,2013-04-17 12:32:00,
2013-04-17 07:34:00,45.2,38.1,30.08,East,96,3.0,3.0,76,0.00,,---,0.00,VWS V14.01,2013-04-17 12:34:00,
2013-04-17 07:35:00,45.2,38.1,30.08,East,96,0.0,2.0,76,0.00,,---,0.00,VWS V14.01,2013-04-17 12:35:00,
2013-04-17 07:36:00,45.2,37.8,30.08,East,96,1.0,5.0,75,0.00,,---,0.00,VWS V14.01,2013-04-17 12:36:00,
2013-04-17 07:39:00,45.4,38.0,30.08,ESE,113,2.0,2.0,75,0.00,,---,0.00,VWS V14.01,2013-04-17 12:39:00,
2013-04-17 07:40:00,45.4,38.0,30.08,ESE,105,1.0,2.0,75,0.00,,---,0.00,VWS V14.01,2013-04-17 12:40:00,
2013-04-17 07:41:00,45.5,38.4,30.08,ESE,117,1.0,3.0,76,0.00,,---,0.00,VWS V14.01,2013-04-17 12:41:00,
2013-04-17 07:43:00,45.7,38.6,30.08,East,92,0.0,1.0,76,0.00,,---,0.00,VWS V14.01,2013-04-17 12:43:00,
2013-04-17 07:45:00,45.8,38.7,30.08,East,92,2.0,5.0,76,0.00,,---,0.00,VWS V14.01,2013-04-17 12:45:00,
2013-04-17 07:46:00,45.8,38.7,30.08,ESE,108,0.0,2.0,76,0.00,,---,0.00,VWS V14.01,2013-04-17 12:46:00,
2013-04-17 07:47:00,45.8,38.3,30.08,ESE,122,3.0,3.0,75,0.00,,---,0.00,VWS V14.01,2013-04-17 12:47:00,
2013-04-17 07:48:00,46.0,38.5,30.08,ESE,122,3.0,3.0,75,0.00,,---,0.00,VWS V14.01,2013-04-17 12:48:00,
2013-04-17 07:51:00,46.2,38.7,30.08,East,86,3.0,4.0,75,0.00,,---,0.00,VWS V14.01,2013-04-17 12:51:00,
2013-04-17 07:52:00,46.2,38.4,30.08,SE,139,2.0,3.0,74,0.00,,---,0.00,VWS V14.01,2013-04-17 12:52:00,
2013-04-17 07:53:00,46.2,38.4,30.08,ESE,112,2.0,6.0,74,0.00,,---,0.00,VWS V14.01,2013-04-17 12:53:00,
2013-04-17 07:54:00,46.2,38.4,30.08,ESE,113,1.0,3.0,74,0.00,,---,0.00,VWS V14.01,2013-04-17 12:54:00,
2013-04-17 07:55:00,46.2,38.4,30.08,ESE,107,3.0,4.0,74,0.00,,---,0.00,VWS V14.01,2013-04-17 12:55:00,
2013-04-17 07:57:00,46.2,38.4,30.08,East,79,3.0,3.0,74,0.00,,---,0.00,VWS V14.01,2013-04-17 12:57:00,
2013-04-17 07:58:00,46.4,38.6,30.08,ESE,120,0.0,2.0,74,0.00,,---,0.00,VWS V14.01,2013-04-17 12:58:00,
2013-04-17 07:59:00,46.4,38.6,30.09,East,98,1.0,1.0,74,0.00,,---,0.00,VWS V14.01,2013-04-17 12:59:00,
2013-04-17 08:00:00,46.4,38.9,30.09,ESE,121,4.0,4.0,75,0.00,,---,0.00,VWS V14.01,2013-04-17 13:00:00,
2013-04-17 08:03:00,46.4,38.6,30.09,ESE,113,1.0,2.0,74,0.00,,---,0.00,VWS V14.01,2013-04-17 13:03:00,
2013-04-17 08:04:00,46.5,39.0,30.09,East,101,1.0,1.0,75,0.00,,---,0.00,VWS V14.01,2013-04-17 13:04:00,
2013-04-17 08:05:00,46.5,39.0,30.09,East,89,1.0,2.0,75,0.00,,---,0.00,VWS V14.01,2013-04-17 13:05:00,
2013-04-17 08:06:00,46.5,39.0,30.09,SE,141,1.0,3.0,75,0.00,,---,0.00,VWS V14.01,2013-04-17 13:06:00,
2013-04-17 08:08:00,46.7,38.9,30.09,ESE,117,3.0,3.0,74,0.00,,---,0.00,VWS V14.01,2013-04-17 13:08:00,
2013-04-17 08:09:00,46.7,38.9,30.09,East,80,2.0,3.0,74,0.00,,---,0.00,VWS V14.01,2013-04-17 13:09:00,
2013-04-17 08:11:00,46.7,38.9,30.09,SE,125,3.0,4.0,74,0.00,,---,0.00,VWS V14.01,2013-04-17 13:11:00,
2013-04-17 08:13:00,46.8,39.0,30.09,ESE,108,2.0,5.0,74,0.00,,---,0.00,VWS V14.01,2013-04-17 13:13:00,
2013-04-17 08:14:00,47.0,39.2,30.09,ESE,120,3.0,3.0,74,0.00,,---,0.00,VWS V14.01,2013-04-17 13:14:00,
2013-04-17 08:16:00,47.0,39.2,30.09,SE,133,4.0,4.0,74,0.00,,---,0.00,VWS V14.01,2013-04-17 13:16:00,
2013-04-17 08:17:00,47.0,39.2,30.09,East,85,2.0,4.0,74,0.00,,---,0.00,VWS V14.01,2013-04-17 13:17:00,
2013-04-17 08:20:00,47.1,39.2,30.09,East,84,2.0,4.0,74,0.00,,---,0.00,VWS V14.01,2013-04-17 13:20:00,
2013-04-17 08:22:00,47.3,39.5,30.09,ENE,59,2.0,4.0,74,0.00,,---,0.00,VWS V14.01,2013-04-17 13:22:00,
2013-04-17 08:23:00,47.3,39.5,30.09,East,96,0.0,4.0,74,0.00,,---,0.00,VWS V14.01,2013-04-17 13:23:00,
2013-04-17 08:25:00,47.4,39.5,30.09,SSE,151,2.0,2.0,74,0.00,,---,0.00,VWS V14.01,2013-04-17 13:25:00,
2013-04-17 08:27:00,47.4,39.5,30.09,SE,143,1.0,4.0,74,0.00,,---,0.00,VWS V14.01,2013-04-17 13:27:00,
2013-04-17 08:28:00,47.4,39.2,30.09,East,101,2.0,5.0,73,0.00,,---,0.00,VWS V14.01,2013-04-17 13:28:00,
2013-04-17 08:29:00,47.4,39.2,30.08,ESE,117,1.0,3.0,73,0.00,,---,0.00,VWS V14.01,2013-04-17 13:29:00,
2013-04-17 08:31:00,47.6,39.7,30.08,ESE,108,2.0,3.0,74,0.00,,---,0.00,VWS V14.01,2013-04-17 13:31:00,
2013-04-17 08:33:00,47.6,39.7,30.08,ESE,117,2.0,3.0,74,0.00,,---,0.00,VWS V14.01,2013-04-17 13:33:00,
2013-04-17 08:34:00,47.7,39.8,30.08,ESE,114,6.0,6.0,74,0.00,,---,0.00,VWS V14.01,2013-04-17 13:34:00,
2013-04-17 08:35:00,47.7,39.8,30.08,ESE,108,1.0,6.0,74,0.00,,---,0.00,VWS V14.01,2013-04-17 13:35:00,
2013-04-17 08:36:00,47.7,39.5,30.08,East,86,1.0,3.0,73,0.00,,---,0.00,VWS V14.01,2013-04-17 13:36:00,
2013-04-17 08:38:00,47.7,39.8,30.08,ENE,65,2.0,3.0,74,0.00,,---,0.00,VWS V14.01,2013-04-17 13:38:00,
2013-04-17 08:40:00,47.9,40.0,30.08,ESE,116,6.0,6.0,74,0.00,,---,0.00,VWS V14.01,2013-04-17 13:40:00,
2013-04-17 08:41:00,47.9,40.0,30.08,SE,127,3.0,6.0,74,0.00,,---,0.00,VWS V14.01,2013-04-17 13:41:00,
2013-04-17 08:43:00,47.9,40.0,30.08,South,187,2.0,3.0,74,0.00,,---,0.00,VWS V14.01,2013-04-17 13:43:00,
2013-04-17 08:45:00,48.0,40.1,30.08,East,97,1.0,2.0,74,0.00,,---,0.00,VWS V14.01,2013-04-17 13:45:00,
2013-04-17 08:46:00,48.0,40.1,30.08,East,96,2.0,5.0,74,0.00,,---,0.00,VWS V14.01,2013-04-17 13:46:00,
2013-04-17 08:47:00,48.0,40.1,30.08,ESE,112,3.0,3.0,74,0.00,,---,0.00,VWS V14.01,2013-04-17 13:47:00,
2013-04-17 08:48:00,48.0,40.1,30.08,ESE,105,4.0,5.0,74,0.00,,---,0.00,VWS V14.01,2013-04-17 13:48:00,
2013-04-17 08:50:00,48.2,40.3,30.08,SE,141,3.0,4.0,74,0.00,,---,0.00,VWS V14.01,2013-04-17 13:50:00,
2013-04-17 08:51:00,48.2,40.3,30.08,ESE,113,1.0,4.0,74,0.00,,---,0.00,VWS V14.01,2013-04-17 13:51:00,
2013-04-17 08:53:00,48.2,40.3,30.08,ESE,111,1.0,4.0,74,0.00,,---,0.00,VWS V14.01,2013-04-17 13:53:00,
2013-04-17 08:54:00,48.3,40.8,30.08,East,83,2.0,3.0,75,0.00,,---,0.00,VWS V14.01,2013-04-17 13:54:00,
2013-04-17 08:56:00,48.3,40.8,30.08,ENE,75,2.0,4.0,75,0.00,,---,0.00,VWS V14.01,2013-04-17 13:56:00,
2013-04-17 08:59:00,48.5,40.6,30.06,East,88,3.0,4.0,74,0.00,,---,0.00,VWS V14.01,2013-04-17 13:59:00,
2013-04-17 09:02:00,48.5,40.6,30.06,East,99,4.0,4.0,74,0.00,,---,0.00,VWS V14.01,2013-04-17 14:02:00,
2013-04-17 09:03:00,48.5,40.6,30.06,ENE,66,3.0,4.0,74,0.00,,---,0.00,VWS V14.01,2013-04-17 14:03:00,
2013-04-17 09:04:00,48.5,40.6,30.06,SE,128,4.0,6.0,74,0.00,,---,0.00,VWS V14.01,2013-04-17 14:04:00,
2013-04-17 09:05:00,48.3,40.1,30.06,East,92,2.0,4.0,73,0.00,,---,0.00,VWS V14.01,2013-04-17 14:05:00,
2013-04-17 09:07:00,48.5,40.6,30.06,East,101,2.0,2.0,74,0.00,,---,0.00,VWS V14.01,2013-04-17 14:07:00,
2013-04-17 09:08:00,48.3,40.4,30.06,SE,129,1.0,3.0,74,0.00,,---,0.00,VWS V14.01,2013-04-17 14:08:00,
2013-04-17 09:10:00,48.5,40.6,30.06,East,101,1.0,3.0,74,0.00,,---,0.00,VWS V14.01,2013-04-17 14:10:00,
2013-04-17 09:13:00,48.3,40.4,30.06,NE,41,1.0,1.0,74,0.00,,---,0.00,VWS V14.01,2013-04-17 14:13:00,
2013-04-17 09:15:00,48.3,40.4,30.09,NE,41,0.0,1.0,74,0.00,,---,0.00,VWS V14.01,2013-04-17 14:15:00,
2013-04-17 09:16:00,48.3,40.4,30.09,NE,41,0.0,0.0,74,0.00,,---,0.00,VWS V14.01,2013-04-17 14:16:00,
2013-04-17 09:17:00,48.3,40.4,30.09,NE,41,1.0,1.0,74,0.00,,---,0.00,VWS V14.01,2013-04-17 14:17:00,
2013-04-17 09:19:00,48.3,40.4,30.09,ENE,77,0.0,0.0,74,0.00,,---,0.00,VWS V14.01,2013-04-17 14:19:00,
2013-04-17 09:20:00,48.3,40.4,30.09,ESE,103,2.0,2.0,74,0.00,,---,0.00,VWS V14.01,2013-04-17 14:20:00,
2013-04-17 09:21:00,48.3,40.8,30.09,ESE,103,1.0,1.0,75,0.00,,---,0.00,VWS V14.01,2013-04-17 14:21:00,
2013-04-17 09:22:00,48.2,40.7,30.09,East,88,1.0,1.0,75,0.00,,---,0.00,VWS V14.01,2013-04-17 14:22:00,
2013-04-17 09:23:00,48.2,41.3,30.09,East,88,0.0,0.0,77,0.01,,---,0.01,VWS V14.01,2013-04-17 14:23:00,
2013-04-17 09:25:00,48.0,41.5,30.09,ESE,108,0.0,1.0,78,0.04,,---,0.04,VWS V14.01,2013-04-17 14:25:00,
2013-04-17 09:26:00,47.9,41.7,30.09,ESE,122,2.0,6.0,79,0.05,,---,0.05,VWS V14.01,2013-04-17 14:26:00,
2013-04-17 09:29:00,47.4,41.5,30.08,East,91,0.0,1.0,80,0.06,,---,0.06,VWS V14.01,2013-04-17 14:29:00,
2013-04-17 09:30:00,47.3,41.8,30.08,East,101,3.0,4.0,81,0.06,,---,0.06,VWS V14.01,2013-04-17 14:30:00,
2013-04-17 09:32:00,47.0,41.8,30.08,ESE,121,2.0,3.0,82,0.07,,---,0.07,VWS V14.01,2013-04-17 14:32:00,
2013-04-17 09:34:00,46.8,41.9,30.08,East,85,2.0,3.0,83,0.07,,---,0.07,VWS V14.01,2013-04-17 14:34:00,
2013-04-17 09:35:00,46.8,42.2,30.08,East,84,0.0,2.0,84,0.07,,---,0.07,VWS V14.01,2013-04-17 14:35:00,
2013-04-17 09:36:00,46.8,42.2,30.08,East,85,0.0,1.0,84,0.08,,---,0.08,VWS V14.01,2013-04-17 14:36:00,
2013-04-17 09:39:00,46.8,42.5,30.08,East,100,2.0,2.0,85,0.08,,---,0.08,VWS V14.01,2013-04-17 14:39:00,
2013-04-17 09:40:00,46.7,42.7,30.08,East,86,2.0,4.0,86,0.08,,---,0.08,VWS V14.01,2013-04-17 14:40:00,
2013-04-17 09:41:00,46.7,42.7,30.08,East,86,1.0,2.0,86,0.08,,---,0.08,VWS V14.01,2013-04-17 14:41:00,
2013-04-17 09:42:00,46.7,42.7,30.08,East,96,2.0,4.0,86,0.08,,---,0.08,VWS V14.01,2013-04-17 14:42:00,
2013-04-17 09:44:00,46.5,42.5,30.06,East,96,1.0,1.0,86,0.08,,---,0.08,VWS V14.01,2013-04-17 14:44:00,
2013-04-17 09:46:00,46.5,42.8,30.06,ESE,123,1.0,3.0,87,0.08,,---,0.08,VWS V14.01,2013-04-17 14:46:00,
2013-04-17 09:47:00,46.5,42.8,30.06,SE,124,0.0,1.0,87,0.08,,---,0.08,VWS V14.01,2013-04-17 14:47:00,
2013-04-17 09:48:00,46.5,42.8,30.06,SE,124,0.0,0.0,87,0.08,,---,0.08,VWS V14.01,2013-04-17 14:48:00,
2013-04-17 09:50:00,46.5,43.1,30.06,ESE,110,0.0,0.0,88,0.10,,---,0.10,VWS V14.01,2013-04-17 14:50:00,
2013-04-17 09:51:00,46.5,43.1,30.06,ESE,104,0.0,3.0,88,0.10,,---,0.10,VWS V14.01,2013-04-17 14:51:00,
2013-04-17 09:52:00,46.5,43.1,30.06,ESE,104,0.0,0.0,88,0.10,,---,0.10,VWS V14.01,2013-04-17 14:52:00,
2013-04-17 09:53:00,46.5,43.1,30.06,ESE,104,0.0,2.0,88,0.10,,---,0.10,VWS V14.01,2013-04-17 14:53:00,
2013-04-17 09:55:00,46.4,43.0,30.06,East,91,1.0,3.0,88,0.10,,---,0.10,VWS V14.01,2013-04-17 14:55:00,
2013-04-17 09:56:00,46.4,43.3,30.06,ESE,115,1.0,3.0,89,0.10,,---,0.10,VWS V14.01,2013-04-17 14:56:00,
2013-04-17 09:58:00,46.4,43.3,30.06,ENE,78,3.0,3.0,89,0.10,,---,0.10,VWS V14.01,2013-04-17 14:58:00,
2013-04-17 09:59:00,46.4,43.3,30.06,ESE,103,1.0,3.0,89,0.10,,---,0.10,VWS V14.01,2013-04-17 14:59:00,
2013-04-17 10:01:00,46.4,43.3,30.06,East,82,2.0,3.0,89,0.10,,---,0.10,VWS V14.01,2013-04-17 15:01:00,
2013-04-17 10:03:00,46.4,43.3,30.06,ESE,118,2.0,2.0,89,0.10,,---,0.10,VWS V14.01,2013-04-17 15:03:00,
2013-04-17 10:05:00,46.4,43.3,30.06,ENE,60,2.0,2.0,89,0.10,,---,0.10,VWS V14.01,2013-04-17 15:05:00,
2013-04-17 10:06:00,46.5,43.4,30.06,East,97,1.0,3.0,89,0.10,,---,0.10,VWS V14.01,2013-04-17 15:06:00,
2013-04-17 10:07:00,46.5,43.4,30.06,ESE,113,1.0,1.0,89,0.10,,---,0.10,VWS V14.01,2013-04-17 15:07:00,
2013-04-17 10:09:00,46.5,43.4,30.06,East,87,2.0,5.0,89,0.10,,---,0.10,VWS V14.01,2013-04-17 15:09:00,
2013-04-17 10:11:00,46.7,43.9,30.06,ESE,105,0.0,3.0,90,0.10,,---,0.10,VWS V14.01,2013-04-17 15:11:00,
2013-04-17 10:12:00,46.8,44.0,30.06,East,95,1.0,5.0,90,0.10,,---,0.10,VWS V14.01,2013-04-17 15:12:00,
2013-04-17 10:13:00,46.8,44.0,30.05,East,93,6.0,6.0,90,0.10,,---,0.10,VWS V14.01,2013-04-17 15:13:00,
2013-04-17 10:14:00,46.8,44.0,30.05,East,96,2.0,6.0,90,0.10,,---,0.10,VWS V14.01,2013-04-17 15:14:00,
2013-04-17 10:16:00,47.0,44.2,30.05,SE,131,4.0,5.0,90,0.10,,---,0.10,VWS V14.01,2013-04-17 15:16:00,
2013-04-17 10:17:00,47.1,44.0,30.05,East,100,2.0,2.0,89,0.10,,---,0.10,VWS V14.01,2013-04-17 15:17:00,
2013-04-17 10:19:00,47.1,44.0,30.05,East,93,0.0,2.0,89,0.10,,---,0.10,VWS V14.01,2013-04-17 15:19:00,
2013-04-17 10:20:00,47.1,44.0,30.05,East,93,0.0,2.0,89,0.10,,---,0.10,VWS V14.01,2013-04-17 15:20:00,
2013-04-17 10:22:00,47.3,44.2,30.05,East,94,0.0,0.0,89,0.10,,---,0.10,VWS V14.01,2013-04-17 15:22:00,
2013-04-17 10:24:00,47.3,44.2,30.05,ESE,109,1.0,2.0,89,0.09,,---,0.10,VWS V14.01,2013-04-17 15:24:00,
2013-04-17 10:26:00,47.3,44.2,30.05,ESE,123,2.0,2.0,89,0.06,,---,0.10,VWS V14.01,2013-04-17 15:26:00,
2013-04-17 10:28:00,47.3,44.2,30.06,East,101,1.0,2.0,89,0.04,,---,0.10,VWS V14.01,2013-04-17 15:28:00,
2013-04-17 10:29:00,47.3,44.2,30.06,East,101,0.0,2.0,89,0.04,,---,0.10,VWS V14.01,2013-04-17 15:29:00,
2013-04-17 10:30:00,47.3,44.2,30.06,East,101,1.0,1.0,89,0.04,,---,0.10,VWS V14.01,2013-04-17 15:30:00,
2013-04-17 10:31:00,47.3,44.2,30.06,ESE,109,0.0,2.0,89,0.04,,---,0.10,VWS V14.01,2013-04-17 15:31:00,
2013-04-17 10:34:00,47.4,44.3,30.06,ESE,117,0.0,1.0,89,0.03,,---,0.10,VWS V14.01,2013-04-17 15:34:00,
2013-04-17 10:36:00,47.4,44.3,30.06,East,94,2.0,2.0,89,0.03,,---,0.10,VWS V14.01,2013-04-17 15:36:00,
2013-04-17 10:39:00,47.4,44.3,30.06,ESE,115,0.0,0.0,89,0.02,,---,0.10,VWS V14.01,2013-04-17 15:39:00,
2013-04-17 10:40:00,47.4,44.3,30.06,ESE,115,0.0,0.0,89,0.02,,---,0.10,VWS V14.01,2013-04-17 15:40:00,
2013-04-17 10:42:00,47.6,44.5,30.06,NNE,18,0.0,0.0,89,0.02,,---,0.10,VWS V14.01,2013-04-17 15:42:00,
2013-04-17 10:43:00,47.6,44.5,30.06,NNE,18,0.0,0.0,89,0.02,,---,0.10,VWS V14.01,2013-04-17 15:43:00,
2013-04-17 10:44:00,47.6,44.5,30.07,NNE,18,0.0,0.0,89,0.02,,---,0.10,VWS V14.01,2013-04-17 15:44:00,
2013-04-17 10:45:00,47.6,44.5,30.07,NNE,18,0.0,1.0,89,0.02,,---,0.10,VWS V14.01,2013-04-17 15:45:00,
2013-04-17 10:48:00,47.6,44.5,30.07,NE,54,1.0,2.0,89,0.02,,---,0.10,VWS V14.01,2013-04-17 15:48:00,
2013-04-17 10:50:00,47.6,44.5,30.07,ESE,117,0.0,3.0,89,0.00,,---,0.10,VWS V14.01,2013-04-17 15:50:00,
2013-04-17 10:51:00,47.6,44.5,30.07,ESE,117,0.0,3.0,89,0.00,,---,0.10,VWS V14.01,2013-04-17 15:51:00,
2013-04-17 10:53:00,47.6,44.5,30.07,East,94,3.0,3.0,89,0.00,,---,0.10,VWS V14.01,2013-04-17 15:53:00,
2013-04-17 10:54:00,47.6,44.5,30.07,East,97,0.0,0.0,89,0.00,,---,0.10,VWS V14.01,2013-04-17 15:54:00,
2013-04-17 10:56:00,47.6,44.5,30.07,East,97,0.0,0.0,89,0.00,,---,0.10,VWS V14.01,2013-04-17 15:56:00,
2013-04-17 10:57:00,47.6,44.5,30.07,East,97,1.0,1.0,89,0.00,,---,0.10,VWS V14.01,2013-04-17 15:57:00,
2013-04-17 10:59:00,47.7,44.6,30.06,NE,53,0.0,1.0,89,0.00,,---,0.10,VWS V14.01,2013-04-17 15:59:00,
2013-04-17 11:01:00,47.7,44.6,30.06,NE,53,0.0,1.0,89,0.00,,---,0.10,VWS V14.01,2013-04-17 16:01:00,
2013-04-17 11:02:00,47.7,44.6,30.06,NE,53,0.0,0.0,89,0.00,,---,0.10,VWS V14.01,2013-04-17 16:02:00,
2013-04-17 11:04:00,47.9,44.8,30.06,SE,134,1.0,1.0,89,0.00,,---,0.10,VWS V14.01,2013-04-17 16:04:00,
2013-04-17 11:07:00,47.9,44.8,30.06,SE,132,0.0,1.0,89,0.00,,---,0.10,VWS V14.01,2013-04-17 16:07:00,
2013-04-17 11:08:00,47.9,44.8,30.06,SE,132,0.0,0.0,89,0.00,,---,0.10,VWS V14.01,2013-04-17 16:08:00,
2013-04-17 11:09:00,48.0,44.9,30.06,SE,132,0.0,0.0,89,0.00,,---,0.10,VWS V14.01,2013-04-17 16:09:00,
2013-04-17 11:12:00,48.0,44.9,30.06,SE,132,0.0,0.0,89,0.00,,---,0.10,VWS V14.01,2013-04-17 16:12:00,
2013-04-17 11:15:00,48.2,45.1,30.05,NE,39,0.0,1.0,89,0.00,,---,0.10,VWS V14.01,2013-04-17 16:15:00,
2013-04-17 11:17:00,48.2,45.1,30.05,East,94,2.0,3.0,89,0.00,,---,0.10,VWS V14.01,2013-04-17 16:17:00,
2013-04-17 11:18:00,48.2,45.1,30.05,East,94,0.0,1.0,89,0.00,,---,0.10,VWS V14.01,2013-04-17 16:18:00,
2013-04-17 11:20:00,48.2,45.1,30.05,East,94,0.0,0.0,89,0.00,,---,0.10,VWS V14.01,2013-04-17 16:20:00,
2013-04-17 11:22:00,48.2,44.8,30.05,East,91,1.0,3.0,88,0.00,,---,0.10,VWS V14.01,2013-04-17 16:22:00,
2013-04-17 11:25:00,48.2,44.8,30.05,East,91,1.0,1.0,88,0.00,,---,0.10,VWS V14.01,2013-04-17 16:25:00,
2013-04-17 11:26:00,48.3,44.9,30.05,East,99,1.0,2.0,88,0.00,,---,0.10,VWS V14.01,2013-04-17 16:26:00,
2013-04-17 11:27:00,48.3,44.6,30.05,East,80,1.0,2.0,87,0.00,,---,0.10,VWS V14.01,2013-04-17 16:27:00,
2013-04-17 11:28:00,48.3,44.6,30.03,ESE,104,0.0,2.0,87,0.00,,---,0.10,VWS V14.01,2013-04-17 16:28:00,
2013-04-17 11:32:00,48.5,44.5,30.03,NE,53,0.0,1.0,86,0.00,,---,0.10,VWS V14.01,2013-04-17 16:32:00,
2013-04-17 11:34:00,48.6,44.6,30.03,SE,129,1.0,2.0,86,0.00,,---,0.10,VWS V14.01,2013-04-17 16:34:00,
2013-04-17 11:35:00,48.6,44.6,30.03,East,96,3.0,5.0,86,0.00,,---,0.10,VWS V14.01,2013-04-17 16:35:00,
2013-04-17 11:38:00,48.8,44.5,30.03,East,91,3.0,3.0,85,0.00,,---,0.10,VWS V14.01,2013-04-17 16:38:00,
2013-04-17 11:39:00,48.9,44.6,30.03,ESE,114,2.0,2.0,85,0.00,,---,0.10,VWS V14.01,2013-04-17 16:39:00,
2013-04-17 11:40:00,48.9,44.6,30.03,ESE,107,0.0,2.0,85,0.00,,---,0.10,VWS V14.01,2013-04-17 16:40:00,
2013-04-17 11:41:00,49.1,44.8,30.03,ESE,106,0.0,2.0,85,0.00,,---,0.10,VWS V14.01,2013-04-17 16:41:00,
2013-04-17 11:44:00,49.2,44.9,30.01,East,91,3.0,3.0,85,0.00,,---,0.10,VWS V14.01,2013-04-17 16:44:00,
2013-04-17 11:45:00,49.2,44.9,30.01,ESE,104,1.0,2.0,85,0.00,,---,0.10,VWS V14.01,2013-04-17 16:45:00,
2013-04-17 11:46:00,49.4,45.1,30.01,East,94,2.0,3.0,85,0.00,,---,0.10,VWS V14.01,2013-04-17 16:46:00,
2013-04-17 11:48:00,49.5,44.9,30.01,ESE,122,2.0,3.0,84,0.00,,---,0.10,VWS V14.01,2013-04-17 16:48:00,
2013-04-17 11:49:00,49.6,45.0,30.01,ESE,108,1.0,1.0,84,0.00,,---,0.10,VWS V14.01,2013-04-17 16:49:00,
2013-04-17 11:50:00,49.6,45.3,30.01,ESE,103,1.0,3.0,85,0.00,,---,0.10,VWS V14.01,2013-04-17 16:50:00,
2013-04-17 11:54:00,49.8,45.2,30.01,East,91,2.0,4.0,84,0.00,,---,0.10,VWS V14.01,2013-04-17 16:54:00,
2013-04-17 11:55:00,49.8,45.2,30.01,ENE,68,4.0,5.0,84,0.00,,---,0.10,VWS V14.01,2013-04-17 16:55:00,
2013-04-17 11:57:00,49.8,44.8,30.01,East,94,3.0,7.0,83,0.00,,---,0.10,VWS V14.01,2013-04-17 16:57:00,
2013-04-17 11:59:00,49.9,44.6,30.01,ESE,108,3.0,4.0,82,0.00,,---,0.10,VWS V14.01,2013-04-17 16:59:00,
2013-04-17 12:00:00,49.9,44.6,30.01,ENE,63,2.0,4.0,82,0.00,,---,0.10,VWS V14.01,2013-04-17 17:00:00,
2013-04-17 12:01:00,49.9,44.6,30.01,SE,139,2.0,4.0,82,0.00,,---,0.10,VWS V14.01,2013-04-17 17:01:00,
2013-04-17 12:03:00,50.1,44.8,30.01,SE,137,5.0,5.0,82,0.00,,---,0.10,VWS V14.01,2013-04-17 17:03:00,
2013-04-17 12:05:00,50.2,44.9,30.01,ESE,114,3.0,9.0,82,0.00,,---,0.10,VWS V14.01,2013-04-17 17:05:00,
2013-04-17 12:08:00,50.2,44.9,30.01,ENE,71,5.0,7.0,82,0.00,,---,0.10,VWS V14.01,2013-04-17 17:08:00,
2013-04-17 12:11:00,50.4,45.1,30.01,ESE,122,6.0,7.0,82,0.00,,---,0.10,VWS V14.01,2013-04-17 17:11:00,
2013-04-17 12:12:00,50.4,45.1,30.01,ESE,115,5.0,6.0,82,0.00,,---,0.10,VWS V14.01,2013-04-17 17:12:00,
2013-04-17 12:14:00,50.5,45.2,29.99,SE,129,5.0,8.0,82,0.00,,---,0.10,VWS V14.01,2013-04-17 17:14:00,
2013-04-17 12:15:00,50.5,45.2,29.99,SSE,152,7.0,7.0,82,0.00,,---,0.10,VWS V14.01,2013-04-17 17:15:00,
2013-04-17 12:16:00,50.5,45.2,29.99,SE,144,5.0,10.0,82,0.00,,---,0.10,VWS V14.01,2013-04-17 17:16:00,
2013-04-17 12:17:00,50.5,45.2,29.99,East,96,4.0,4.0,82,0.00,,---,0.10,VWS V14.01,2013-04-17 17:17:00,
2013-04-17 12:20:00,50.5,45.5,29.99,South,176,3.0,4.0,83,0.00,,---,0.10,VWS V14.01,2013-04-17 17:20:00,
2013-04-17 12:21:00,50.5,45.5,29.99,ESE,108,8.0,8.0,83,0.00,,---,0.10,VWS V14.01,2013-04-17 17:21:00,
2013-04-17 12:22:00,50.5,45.5,29.99,East,80,6.0,10.0,83,0.00,,---,0.10,VWS V14.01,2013-04-17 17:22:00,
2013-04-17 12:23:00,50.5,45.5,29.99,East,100,4.0,7.0,83,0.00,,---,0.10,VWS V14.01,2013-04-17 17:23:00,
2013-04-17 12:26:00,50.5,45.5,29.99,SSE,168,6.0,6.0,83,0.00,,---,0.10,VWS V14.01,2013-04-17 17:26:00,
2013-04-17 12:27:00,50.5,45.8,29.99,SE,124,6.0,6.0,84,0.00,,---,0.10,VWS V14.01,2013-04-17 17:27:00,
2013-04-17 12:28:00,50.5,45.8,29.99,East,80,5.0,9.0,84,0.00,,---,0.10,VWS V14.01,2013-04-17 17:28:00,
2013-04-17 12:30:00,50.5,45.5,29.99,ESE,115,7.0,7.0,83,0.00,,---,0.10,VWS V14.01,2013-04-17 17:30:00,
2013-04-17 12:33:00,50.8,46.2,29.99,SE,129,6.0,9.0,84,0.00,,---,0.10,VWS V14.01,2013-04-17 17:33:00,
2013-04-17 12:34:00,50.8,46.2,29.99,East,86,10.0,10.0,84,0.00,,---,0.10,VWS V14.01,2013-04-17 17:34:00,
2013-04-17 12:35:00,50.8,46.2,29.99,SSE,154,3.0,10.0,84,0.00,,---,0.10,VWS V14.01,2013-04-17 17:35:00,
2013-04-17 12:36:00,51.0,46.0,29.99,SE,129,4.0,4.0,83,0.00,,---,0.10,VWS V14.01,2013-04-17 17:36:00,
2013-04-17 12:39:00,51.1,46.1,29.99,ESE,107,4.0,5.0,83,0.00,,---,0.10,VWS V14.01,2013-04-17 17:39:00,
2013-04-17 12:40:00,51.1,46.1,29.99,East,88,4.0,6.0,83,0.00,,---,0.10,VWS V14.01,2013-04-17 17:40:00,
2013-04-17 12:42:00,51.1,46.1,29.99,East,96,7.0,9.0,83,0.00,,---,0.10,VWS V14.01,2013-04-17 17:42:00,
2013-04-17 12:44:00,51.1,46.1,29.98,SE,143,4.0,5.0,83,0.00,,---,0.10,VWS V14.01,2013-04-17 17:44:00,
2013-04-17 12:46:00,51.3,46.3,29.98,ESE,113,5.0,5.0,83,0.00,,---,0.10,VWS V14.01,2013-04-17 17:46:00,
2013-04-17 12:47:00,51.3,46.3,29.98,East,92,2.0,9.0,83,0.00,,---,0.10,VWS V14.01,2013-04-17 17:47:00,
2013-04-17 12:48:00,51.4,46.4,29.98,East,89,2.0,3.0,83,0.00,,---,0.10,VWS V14.01,2013-04-17 17:48:00,
2013-04-17 12:50:00,51.4,46.4,29.98,East,86,5.0,6.0,83,0.00,,---,0.10,VWS V14.01,2013-04-17 17:50:00,
2013-04-17 12:51:00,51.6,46.6,29.98,ESE,104,5.0,5.0,83,0.00,,---,0.10,VWS V14.01,2013-04-17 17:51:00,
2013-04-17 12:53:00,51.7,46.7,29.98,ESE,102,2.0,4.0,83,0.00,,---,0.10,VWS V14.01,2013-04-17 17:53:00,
2013-04-17 12:55:00,51.7,46.7,29.98,SE,131,5.0,11.0,83,0.00,,---,0.10,VWS V14.01,2013-04-17 17:55:00,
2013-04-17 12:57:00,51.9,46.6,29.98,East,82,3.0,7.0,82,0.00,,---,0.10,VWS V14.01,2013-04-17 17:57:00,
2013-04-17 12:58:00,51.9,46.6,29.98,ESE,115,4.0,4.0,82,0.00,,---,0.10,VWS V14.01,2013-04-17 17:58:00,
2013-04-17 13:00:00,52.0,46.7,29.96,SE,124,3.0,5.0,82,0.00,,---,0.10,VWS V14.01,2013-04-17 18:00:00,
2013-04-17 13:01:00,52.2,46.9,29.96,SE,136,5.0,11.0,82,0.00,,---,0.10,VWS V14.01,2013-04-17 18:01:00,
2013-04-17 13:04:00,52.3,47.3,29.96,ESE,109,5.0,5.0,83,0.00,,---,0.10,VWS V14.01,2013-04-17 18:04:00,
2013-04-17 13:05:00,52.3,47.3,29.96,ESE,123,4.0,5.0,83,0.00,,---,0.10,VWS V14.01,2013-04-17 18:05:00,
2013-04-17 13:06:00,52.3,47.3,29.96,East,94,2.0,5.0,83,0.00,,---,0.10,VWS V14.01,2013-04-17 18:06:00,
2013-04-17 13:07:00,52.3,47.3,29.96,East,101,9.0,9.0,83,0.00,,---,0.10,VWS V14.01,2013-04-17 18:07:00,
2013-04-17 13:10:00,52.3,47.6,29.96,SSE,157,6.0,6.0,84,0.00,,---,0.10,VWS V14.01,2013-04-17 18:10:00,
2013-04-17 13:11:00,52.2,47.5,29.96,SSE,157,6.0,10.0,84,0.00,,---,0.10,VWS V14.01,2013-04-17 18:11:00,
2013-04-17 13:13:00,52.2,47.2,29.96,ESE,114,3.0,13.0,83,0.00,,---,0.10,VWS V14.01,2013-04-17 18:13:00,
2013-04-17 13:15:00,52.2,47.5,29.95,ESE,119,3.0,9.0,84,0.00,,---,0.10,VWS V14.01,2013-04-17 18:15:00,
2013-04-17 13:16:00,52.2,48.2,29.95,SSE,148,4.0,12.0,86,0.00,,---,0.10,VWS V14.01,2013-04-17 18:16:00,
2013-04-17 13:19:00,52.2,47.2,29.95,South,178,9.0,12.0,83,0.00,,---,0.10,VWS V14.01,2013-04-17 18:19:00,
2013-04-17 13:20:00,52.2,47.2,29.95,ESE,113,8.0,9.0,83,0.00,,---,0.10,VWS V14.01,2013-04-17 18:20:00,
2013-04-17 13:21:00,52.2,47.2,29.95,SE,134,4.0,9.0,83,0.00,,---,0.10,VWS V14.01,2013-04-17 18:21:00,
2013-04-17 13:24:00,52.3,47.3,29.95,ESE,107,5.0,6.0,83,0.00,,---,0.10,VWS V14.01,2013-04-17 18:24:00,
2013-04-17 13:27:00,52.2,47.2,29.95,East,101,4.0,7.0,83,0.00,,---,0.10,VWS V14.01,2013-04-17 18:27:00,
2013-04-17 13:28:00,52.2,47.2,29.95,ENE,59,5.0,7.0,83,0.00,,---,0.10,VWS V14.01,2013-04-17 18:28:00,
2013-04-17 13:31:00,52.2,47.2,29.94,ENE,63,5.0,10.0,83,0.00,,---,0.10,VWS V14.01,2013-04-17 18:31:00,
2013-04-17 13:32:00,52.2,47.2,29.94,ENE,76,3.0,3.0,83,0.00,,---,0.10,VWS V14.01,2013-04-17 18:32:00,
2013-04-17 13:33:00,52.2,47.2,29.94,East,101,6.0,13.0,83,0.00,,---,0.10,VWS V14.01,2013-04-17 18:33:00,
2013-04-17 13:36:00,52.0,47.0,29.94,East,80,3.0,12.0,83,0.00,,---,0.10,VWS V14.01,2013-04-17 18:36:00,
2013-04-17 13:37:00,52.0,47.0,29.94,ESE,117,5.0,7.0,83,0.00,,---,0.10,VWS V14.01,2013-04-17 18:37:00,
2013-04-17 13:38:00,52.0,47.0,29.94,SE,145,4.0,10.0,83,0.00,,---,0.10,VWS V14.01,2013-04-17 18:38:00,
2013-04-17 13:40:00,52.0,47.0,29.94,ESE,112,4.0,5.0,83,0.00,,---,0.10,VWS V14.01,2013-04-17 18:40:00,
2013-04-17 13:42:00,52.0,47.3,29.94,East,99,9.0,10.0,84,0.00,,---,0.10,VWS V14.01,2013-04-17 18:42:00,
2013-04-17 13:44:00,52.0,47.3,29.94,East,98,5.0,7.0,84,0.00,,---,0.10,VWS V14.01,2013-04-17 18:44:00,
2013-04-17 13:46:00,51.9,47.2,29.94,SE,136,2.0,6.0,84,0.00,,---,0.10,VWS V14.01,2013-04-17 18:46:00,
2013-04-17 13:47:00,51.9,47.2,29.94,ESE,122,3.0,3.0,84,0.00,,---,0.10,VWS V14.01,2013-04-17 18:47:00,
2013-04-17 13:50:00,51.9,47.5,29.94,ESE,120,1.0,7.0,85,0.00,,---,0.10,VWS V14.01,2013-04-17 18:50:00,
2013-04-17 13:52:00,51.9,47.5,29.94,SE,128,4.0,8.0,85,0.00,,---,0.10,VWS V14.01,2013-04-17 18:52:00,
2013-04-17 13:54:00,51.9,47.5,29.94,ESE,108,3.0,6.0,85,0.00,,---,0.10,VWS V14.01,2013-04-17 18:54:00,
2013-04-17 13:57:00,52.0,47.6,29.94,SSE,150,5.0,9.0,85,0.00,,---,0.10,VWS V14.01,2013-04-17 18:57:00,
2013-04-17 13:58:00,51.9,47.5,29.94,East,100,3.0,5.0,85,0.00,,---,0.10,VWS V14.01,2013-04-17 18:58:00,
2013-04-17 13:59:00,51.9,47.5,29.93,SE,128,8.0,8.0,85,0.00,,---,0.10,VWS V14.01,2013-04-17 18:59:00,
2013-04-17 14:02:00,51.9,47.8,29.93,ESE,118,4.0,4.0,86,0.00,,---,0.10,VWS V14.01,2013-04-17 19:02:00,
2013-04-17 14:04:00,51.9,47.8,29.93,ESE,113,2.0,5.0,86,0.00,,---,0.10,VWS V14.01,2013-04-17 19:04:00,
2013-04-17 14:05:00,51.9,47.8,29.93,ESE,115,3.0,7.0,86,0.00,,---,0.10,VWS V14.01,2013-04-17 19:05:00,
2013-04-17 14:06:00,51.9,47.8,29.93,ESE,106,1.0,7.0,86,0.00,,---,0.10,VWS V14.01,2013-04-17 19:06:00,
2013-04-17 14:09:00,51.9,47.8,29.93,East,87,3.0,5.0,86,0.00,,---,0.10,VWS V14.01,2013-04-17 19:09:00,
2013-04-17 14:11:00,51.9,47.8,29.93,East,84,5.0,6.0,86,0.00,,---,0.10,VWS V14.01,2013-04-17 19:11:00,
2013-04-17 14:12:00,51.9,47.8,29.93,South,169,5.0,10.0,86,0.00,,---,0.10,VWS V14.01,2013-04-17 19:12:00,
2013-04-17 14:16:00,52.0,48.0,29.92,SE,141,5.0,6.0,86,0.00,,---,0.10,VWS V14.01,2013-04-17 19:16:00,
2013-04-17 14:17:00,52.0,48.0,29.92,SE,140,2.0,6.0,86,0.00,,---,0.10,VWS V14.01,2013-04-17 19:17:00,
2013-04-17 14:18:00,52.0,48.0,29.92,East,94,2.0,6.0,86,0.00,,---,0.10,VWS V14.01,2013-04-17 19:18:00,
2013-04-17 14:21:00,52.0,48.0,29.92,South,179,5.0,5.0,86,0.00,,---,0.10,VWS V14.01,2013-04-17 19:21:00,
2013-04-17 14:22:00,52.0,48.0,29.92,SSE,153,6.0,7.0,86,0.00,,---,0.10,VWS V14.01,2013-04-17 19:22:00,
2013-04-17 14:23:00,52.0,48.0,29.92,ESE,120,4.0,6.0,86,0.00,,---,0.10,VWS V14.01,2013-04-17 19:23:00,
2013-04-17 14:24:00,52.0,48.0,29.92,SE,126,2.0,6.0,86,0.00,,---,0.10,VWS V14.01,2013-04-17 19:24:00,
2013-04-17 14:27:00,52.0,48.0,29.92,ESE,108,3.0,4.0,86,0.00,,---,0.10,VWS V14.01,2013-04-17 19:27:00,
2013-04-17 14:28:00,52.0,48.0,29.92,SE,139,3.0,6.0,86,0.00,,---,0.10,VWS V14.01,2013-04-17 19:28:00,
2013-04-17 14:29:00,52.0,48.0,29.92,SE,131,2.0,6.0,86,0.00,,---,0.10,VWS V14.01,2013-04-17 19:29:00,
2013-04-17 14:31:00,52.0,48.0,29.92,SE,141,3.0,5.0,86,0.00,,---,0.10,VWS V14.01,2013-04-17 19:31:00,
2013-04-17 14:33:00,52.0,48.0,29.92,South,173,5.0,5.0,86,0.00,,---,0.10,VWS V14.01,2013-04-17 19:33:00,
2013-04-17 14:34:00,52.2,48.2,29.92,SE,139,3.0,6.0,86,0.00,,---,0.10,VWS V14.01,2013-04-17 19:34:00,
2013-04-17 14:35:00,52.2,48.2,29.92,SE,131,4.0,7.0,86,0.00,,---,0.10,VWS V14.01,2013-04-17 19:35:00,
2013-04-17 14:36:00,52.2,48.2,29.92,ESE,114,3.0,4.0,86,0.00,,---,0.10,VWS V14.01,2013-04-17 19:36:00,
2013-04-17 14:37:00,52.2,48.2,29.92,SE,129,5.0,5.0,86,0.00,,---,0.10,VWS V14.01,2013-04-17 19:37:00,
2013-04-17 14:39:00,52.2,48.2,29.92,SSE,150,4.0,5.0,86,0.00,,---,0.10,VWS V14.01,2013-04-17 19:39:00,
2013-04-17 14:41:00,52.2,48.2,29.92,SSE,154,2.0,6.0,86,0.00,,---,0.10,VWS V14.01,2013-04-17 19:41:00,
2013-04-17 14:42:00,52.2,48.2,29.92,ESE,111,4.0,5.0,86,0.00,,---,0.10,VWS V14.01,2013-04-17 19:42:00,
2013-04-17 14:45:00,52.2,48.2,29.91,SSE,162,7.0,7.0,86,0.00,,---,0.10,VWS V14.01,2013-04-17 19:45:00,
2013-04-17 14:46:00,52.2,48.2,29.91,SSE,162,7.0,7.0,86,0.00,,---,0.10,VWS V14.01,2013-04-17 19:46:00,
2013-04-17 14:47:00,52.2,48.2,29.91,East,90,3.0,7.0,86,0.00,,---,0.10,VWS V14.01,2013-04-17 19:47:00,
2013-04-17 14:48:00,52.3,48.2,29.91,SSW,194,4.0,6.0,86,0.00,,---,0.10,VWS V14.01,2013-04-17 19:48:00,
2013-04-17 14:51:00,52.3,48.2,29.91,SE,143,5.0,5.0,86,0.00,,---,0.10,VWS V14.01,2013-04-17 19:51:00,
2013-04-17 14:52:00,52.3,48.2,29.91,ESE,120,5.0,5.0,86,0.00,,---,0.10,VWS V14.01,2013-04-17 19:52:00,
2013-04-17 14:53:00,52.3,48.2,29.91,SSE,166,3.0,5.0,86,0.00,,---,0.10,VWS V14.01,2013-04-17 19:53:00,
2013-04-17 14:55:00,52.3,48.2,29.91,East,86,2.0,3.0,86,0.00,,---,0.10,VWS V14.01,2013-04-17 19:55:00,
2013-04-17 14:58:00,52.3,48.2,29.91,SE,133,3.0,4.0,86,0.00,,---,0.10,VWS V14.01,2013-04-17 19:58:00,
2013-04-17 15:00:00,52.3,48.2,29.90,East,89,7.0,7.0,86,0.00,,---,0.10,VWS V14.01,2013-04-17 20:00:00,
2013-04-17 15:02:00,52.3,48.2,29.90,ESE,115,5.0,5.0,86,0.00,,---,0.10,VWS V14.01,2013-04-17 20:02:00,
2013-04-17 15:03:00,52.5,48.4,29.90,East,99,4.0,4.0,86,0.00,,---,0.10,VWS V14.01,2013-04-17 20:03:00,
2013-04-17 15:05:00,52.5,48.4,29.90,ESE,113,2.0,5.0,86,0.00,,---,0.10,VWS V14.01,2013-04-17 20:05:00,
2013-04-17 15:07:00,52.5,48.4,29.90,SE,125,2.0,4.0,86,0.00,,---,0.10,VWS V14.01,2013-04-17 20:07:00,
2013-04-17 15:08:00,52.5,48.4,29.90,SE,131,4.0,4.0,86,0.00,,---,0.10,VWS V14.01,2013-04-17 20:08:00,
2013-04-17 15:09:00,52.6,48.5,29.90,SSE,155,3.0,3.0,86,0.00,,---,0.10,VWS V14.01,2013-04-17 20:09:00,
2013-04-17 15:11:00,52.8,48.7,29.90,South,178,3.0,3.0,86,0.00,,---,0.10,VWS V14.01,2013-04-17 20:11:00,
2013-04-17 15:12:00,52.8,48.7,29.90,ESE,118,3.0,4.0,86,0.00,,---,0.10,VWS V14.01,2013-04-17 20:12:00,
2013-04-17 15:15:00,52.8,48.7,29.89,SE,135,5.0,7.0,86,0.00,,---,0.10,VWS V14.01,2013-04-17 20:15:00,
2013-04-17 15:17:00,52.9,48.8,29.89,SSE,151,2.0,5.0,86,0.00,,---,0.10,VWS V14.01,2013-04-17 20:17:00,
2013-04-17 15:19:00,52.9,48.8,29.89,South,169,2.0,4.0,86,0.00,,---,0.10,VWS V14.01,2013-04-17 20:19:00,
2013-04-17 15:20:00,52.9,48.8,29.89,SE,129,2.0,4.0,86,0.00,,---,0.10,VWS V14.01,2013-04-17 20:20:00,
2013-04-17 15:22:00,53.1,49.0,29.89,SE,124,3.0,4.0,86,0.00,,---,0.10,VWS V14.01,2013-04-17 20:22:00,
2013-04-17 15:24:00,53.1,49.0,29.89,SE,131,4.0,4.0,86,0.00,,---,0.10,VWS V14.01,2013-04-17 20:24:00,
2013-04-17 15:25:00,53.1,49.0,29.89,SE,130,3.0,4.0,86,0.00,,---,0.10,VWS V14.01,2013-04-17 20:25:00,
2013-04-17 15:26:00,53.1,49.0,29.89,ESE,121,2.0,4.0,86,0.00,,---,0.10,VWS V14.01,2013-04-17 20:26:00,
2013-04-17 15:27:00,53.1,49.0,29.89,ESE,121,2.0,4.0,86,0.00,,---,0.10,VWS V14.01,2013-04-17 20:27:00,
2013-04-17 15:29:00,53.2,49.1,29.88,East,85,5.0,5.0,86,0.00,,---,0.10,VWS V14.01,2013-04-17 20:29:00,
2013-04-17 15:31:00,53.2,49.1,29.88,SE,127,4.0,4.0,86,0.00,,---,0.10,VWS V14.01,2013-04-17 20:31:00,
2013-04-17 15:33:00,53.3,49.2,29.88,SE,146,3.0,4.0,86,0.00,,---,0.10,VWS V14.01,2013-04-17 20:33:00,
2013-04-17 15:34:00,53.3,49.2,29.88,SE,143,2.0,5.0,86,0.00,,---,0.10,VWS V14.01,2013-04-17 20:34:00,
2013-04-17 15:35:00,53.3,49.2,29.88,East,96,5.0,5.0,86,0.00,,---,0.10,VWS V14.01,2013-04-17 20:35:00,
2013-04-17 15:36:00,53.3,49.2,29.88,East,89,4.0,5.0,86,0.00,,---,0.10,VWS V14.01,2013-04-17 20:36:00,
2013-04-17 15:38:00,53.5,49.4,29.88,SE,131,5.0,6.0,86,0.00,,---,0.10,VWS V14.01,2013-04-17 20:38:00,
2013-04-17 15:41:00,53.5,49.1,29.88,SE,140,5.0,9.0,85,0.00,,---,0.10,VWS V14.01,2013-04-17 20:41:00,
2013-04-17 15:42:00,53.5,49.1,29.88,ESE,106,3.0,7.0,85,0.00,,---,0.10,VWS V14.01,2013-04-17 20:42:00,
2013-04-17 15:43:00,53.5,49.1,29.88,ESE,120,2.0,5.0,85,0.00,,---,0.10,VWS V14.01,2013-04-17 20:43:00,
2013-04-17 15:44:00,53.5,49.1,29.85,SE,130,4.0,4.0,85,0.00,,---,0.10,VWS V14.01,2013-04-17 20:44:00,
2013-04-17 15:47:00,53.6,49.2,29.85,East,94,5.0,6.0,85,0.00,,---,0.10,VWS V14.01,2013-04-17 20:47:00,
2013-04-17 15:48:00,53.6,49.2,29.85,East,91,3.0,5.0,85,0.00,,---,0.10,VWS V14.01,2013-04-17 20:48:00,
2013-04-17 15:49:00,53.6,49.2,29.85,East,86,4.0,6.0,85,0.00,,---,0.10,VWS V14.01,2013-04-17 20:49:00,
2013-04-17 15:51:00,53.6,49.2,29.85,SE,137,6.0,6.0,85,0.00,,---,0.10,VWS V14.01,2013-04-17 20:51:00,
2013-04-17 15:53:00,53.6,49.2,29.85,East,94,3.0,5.0,85,0.00,,---,0.10,VWS V14.01,2013-04-17 20:53:00,
2013-04-17 15:54:00,53.6,49.2,29.85,ESE,108,2.0,5.0,85,0.00,,---,0.10,VWS V14.01,2013-04-17 20:54:00,
2013-04-17 15:57:00,53.6,49.2,29.85,ESE,112,4.0,4.0,85,0.00,,---,0.10,VWS V14.01,2013-04-17 20:57:00,
2013-04-17 15:58:00,53.6,49.2,29.85,East,86,3.0,7.0,85,0.00,,---,0.10,VWS V14.01,2013-04-17 20:58:00,
2013-04-17 15:59:00,53.6,49.2,29.84,East,100,2.0,6.0,85,0.00,,---,0.10,VWS V14.01,2013-04-17 20:59:00,
2013-04-17 16:00:00,53.6,49.2,29.84,ESE,119,3.0,6.0,85,0.00,,---,0.10,VWS V14.01,2013-04-17 21:00:00,
2013-04-17 16:02:00,53.6,49.2,29.84,East,95,4.0,5.0,85,0.00,,---,0.10,VWS V14.01,2013-04-17 21:02:00,
2013-04-17 16:05:00,53.6,49.2,29.84,ESE,113,1.0,2.0,85,0.00,,---,0.10,VWS V14.01,2013-04-17 21:05:00,
2013-04-17 16:06:00,53.6,49.2,29.84,SE,129,4.0,8.0,85,0.00,,---,0.10,VWS V14.01,2013-04-17 21:06:00,
2013-04-17 16:08:00,53.6,49.2,29.84,SSE,166,4.0,6.0,85,0.00,,---,0.10,VWS V14.01,2013-04-17 21:08:00,
2013-04-17 16:10:00,53.6,49.2,29.84,SE,136,4.0,4.0,85,0.00,,---,0.10,VWS V14.01,2013-04-17 21:10:00,
2013-04-17 16:11:00,53.6,49.2,29.84,SE,129,5.0,5.0,85,0.00,,---,0.10,VWS V14.01,2013-04-17 21:11:00,
2013-04-17 16:13:00,53.6,49.2,29.84,ESE,120,3.0,6.0,85,0.00,,---,0.10,VWS V14.01,2013-04-17 21:13:00,
2013-04-17 16:14:00,53.6,49.2,29.85,SE,135,3.0,5.0,85,0.00,,---,0.10,VWS V14.01,2013-04-17 21:14:00,
2013-04-17 16:16:00,53.6,49.2,29.85,ESE,120,3.0,4.0,85,0.00,,---,0.10,VWS V14.01,2013-04-17 21:16:00,
2013-04-17 16:17:00,53.5,49.1,29.85,SE,124,4.0,5.0,85,0.00,,---,0.10,VWS V14.01,2013-04-17 21:17:00,
2013-04-17 16:18:00,53.5,49.1,29.85,ESE,103,3.0,4.0,85,0.00,,---,0.10,VWS V14.01,2013-04-17 21:18:00,
2013-04-17 16:21:00,53.5,49.1,29.85,SE,131,3.0,6.0,85,0.00,,---,0.10,VWS V14.01,2013-04-17 21:21:00,
2013-04-17 16:23:00,53.6,49.2,29.85,East,95,5.0,5.0,85,0.00,,---,0.10,VWS V14.01,2013-04-17 21:23:00,
2013-04-17 16:24:00,53.6,49.2,29.85,SSE,151,3.0,3.0,85,0.00,,---,0.10,VWS V14.01,2013-04-17 21:24:00,
2013-04-17 16:25:00,53.6,49.2,29.85,SE,129,6.0,6.0,85,0.00,,---,0.10,VWS V14.01,2013-04-17 21:25:00,
2013-04-17 16:26:00,53.6,49.5,29.85,SSE,155,4.0,5.0,86,0.00,,---,0.10,VWS V14.01,2013-04-17 21:26:00,
2013-04-17 16:28:00,53.6,49.5,29.84,SE,134,4.0,4.0,86,0.00,,---,0.10,VWS V14.01,2013-04-17 21:28:00,
2013-04-17 16:30:00,53.6,49.5,29.84,ESE,103,0.0,5.0,86,0.00,,---,0.10,VWS V14.01,2013-04-17 21:30:00,
2013-04-17 16:31:00,53.6,49.5,29.84,East,89,3.0,5.0,86,0.00,,---,0.10,VWS V14.01,2013-04-17 21:31:00,
2013-04-17 16:32:00,53.6,49.5,29.84,ESE,103,2.0,5.0,86,0.00,,---,0.10,VWS V14.01,2013-04-17 21:32:00,
2013-04-17 16:33:00,53.6,49.5,29.84,SSE,161,6.0,6.0,86,0.00,,---,0.10,VWS V14.01,2013-04-17 21:33:00,
2013-04-17 16:36:00,53.6,49.5,29.84,SSE,157,4.0,5.0,86,0.00,,---,0.10,VWS V14.01,2013-04-17 21:36:00,
2013-04-17 16:37:00,53.6,49.5,29.84,SE,131,0.0,5.0,86,0.00,,---,0.10,VWS V14.01,2013-04-17 21:37:00,
2013-04-17 16:38:00,53.6,49.5,29.84,ESE,115,1.0,3.0,86,0.00,,---,0.10,VWS V14.01,2013-04-17 21:38:00,
2013-04-17 16:39:00,53.6,49.5,29.84,East,96,0.0,4.0,86,0.00,,---,0.10,VWS V14.01,2013-04-17 21:39:00,
2013-04-17 16:40:00,53.6,49.5,29.84,NW,316,4.0,4.0,86,0.00,,---,0.10,VWS V14.01,2013-04-17 21:40:00,
2013-04-17 16:41:00,53.6,49.5,29.84,NW,313,3.0,7.0,86,0.00,,---,0.10,VWS V14.01,2013-04-17 21:41:00,
2013-04-17 16:42:00,53.6,49.5,29.84,WNW,303,5.0,5.0,86,0.00,,---,0.10,VWS V14.01,2013-04-17 21:42:00,
2013-04-17 16:46:00,53.2,48.2,29.88,NNW,329,10.0,12.0,83,0.00,,---,0.10,VWS V14.01,2013-04-17 21:46:00,
2013-04-17 16:47:00,52.9,47.6,29.88,NNW,333,4.0,11.0,82,0.00,,---,0.10,VWS V14.01,2013-04-17 21:47:00,
2013-04-17 16:48:00,52.8,47.5,29.88,NW,319,3.0,7.0,82,0.00,,---,0.10,VWS V14.01,2013-04-17 21:48:00,
2013-04-17 16:49:00,52.5,47.5,29.88,North,358,4.0,8.0,83,0.00,,---,0.10,VWS V14.01,2013-04-17 21:49:00,
2013-04-17 16:53:00,52.0,47.3,29.88,WNW,295,2.0,3.0,84,0.00,,---,0.10,VWS V14.01,2013-04-17 21:53:00,
2013-04-17 16:54:00,51.9,47.2,29.88,NW,322,4.0,6.0,84,0.00,,---,0.10,VWS V14.01,2013-04-17 21:54:00,
2013-04-17 16:58:00,51.6,47.6,29.88,NNW,331,3.0,5.0,86,0.10,,---,0.20,VWS V14.01,2013-04-17 21:58:00,
2013-04-17 17:02:00,50.8,47.4,29.92,East,88,2.0,2.0,88,0.23,,---,0.33,VWS V14.01,2013-04-17 22:02:00,
2013-04-17 17:03:00,50.7,47.6,29.92,East,86,1.0,3.0,89,0.25,,---,0.35,VWS V14.01,2013-04-17 22:03:00,
2013-04-17 17:04:00,50.4,47.3,29.92,NW,308,4.0,4.0,89,0.31,,---,0.41,VWS V14.01,2013-04-17 22:04:00,
2013-04-17 17:05:00,50.4,47.3,29.92,NW,304,5.0,8.0,89,0.32,,---,0.42,VWS V14.01,2013-04-17 22:05:00,
2013-04-17 17:08:00,50.2,48.0,29.92,NW,325,5.0,6.0,92,0.35,,---,0.45,VWS V14.01,2013-04-17 22:08:00,
2013-04-17 17:09:00,50.1,47.9,29.92,NNE,32,1.0,1.0,92,0.37,,---,0.47,VWS V14.01,2013-04-17 22:09:00,
2013-04-17 17:10:00,49.9,47.7,29.92,NE,39,1.0,2.0,92,0.38,,---,0.48,VWS V14.01,2013-04-17 22:10:00,
2013-04-17 17:11:00,49.9,47.7,29.92,East,87,3.0,4.0,92,0.38,,---,0.48,VWS V14.01,2013-04-17 22:11:00,
2013-04-17 17:13:00,49.6,47.7,29.92,WSW,240,2.0,2.0,93,0.38,,---,0.48,VWS V14.01,2013-04-17 22:13:00,
2013-04-17 17:14:00,49.6,47.7,29.89,North,355,2.0,2.0,93,0.38,,---,0.48,VWS V14.01,2013-04-17 22:14:00,
2013-04-17 17:16:00,49.6,47.7,29.89,ENE,77,1.0,2.0,93,0.38,,---,0.48,VWS V14.01,2013-04-17 22:16:00,
2013-04-17 17:17:00,49.6,48.0,29.89,NNE,23,1.0,3.0,94,0.38,,---,0.48,VWS V14.01,2013-04-17 22:17:00,
2013-04-17 17:19:00,49.6,48.0,29.89,NNE,17,0.0,1.0,94,0.38,,---,0.48,VWS V14.01,2013-04-17 22:19:00,
2013-04-17 17:20:00,49.8,48.2,29.89,NE,45,0.0,2.0,94,0.38,,---,0.48,VWS V14.01,2013-04-17 22:20:00,
2013-04-17 17:23:00,49.8,48.4,29.89,North,2,1.0,2.0,95,0.40,,---,0.50,VWS V14.01,2013-04-17 22:23:00,
2013-04-17 17:24:00,49.8,48.4,29.89,NNW,329,3.0,3.0,95,0.40,,---,0.50,VWS V14.01,2013-04-17 22:24:00,
2013-04-17 17:25:00,49.8,48.4,29.89,NW,319,4.0,4.0,95,0.41,,---,0.51,VWS V14.01,2013-04-17 22:25:00,
2013-04-17 17:27:00,49.9,48.5,29.89,WNW,302,5.0,5.0,95,0.42,,---,0.52,VWS V14.01,2013-04-17 22:27:00,
2013-04-17 17:28:00,49.9,48.5,29.89,NW,319,6.0,8.0,95,0.43,,---,0.53,VWS V14.01,2013-04-17 22:28:00,
2013-04-17 17:30:00,49.9,48.5,29.95,North,9,4.0,5.0,95,0.48,,---,0.58,VWS V14.01,2013-04-17 22:30:00,
2013-04-17 17:33:00,49.8,48.4,29.95,NW,307,2.0,5.0,95,0.49,,---,0.59,VWS V14.01,2013-04-17 22:33:00,
2013-04-17 17:35:00,49.6,48.5,29.95,North,3,1.0,2.0,96,0.55,,---,0.65,VWS V14.01,2013-04-17 22:35:00,
2013-04-17 17:36:00,49.6,48.5,29.95,ENE,63,0.0,2.0,96,0.56,,---,0.66,VWS V14.01,2013-04-17 22:36:00,
2013-04-17 17:37:00,49.6,48.5,29.95,North,352,1.0,3.0,96,0.56,,---,0.66,VWS V14.01,2013-04-17 22:37:00,
2013-04-17 17:38:00,49.6,48.5,29.95,NNE,28,1.0,4.0,96,0.56,,---,0.66,VWS V14.01,2013-04-17 22:38:00,
2013-04-17 17:42:00,49.5,48.4,29.95,North,0,4.0,4.0,96,0.57,,---,0.67,VWS V14.01,2013-04-17 22:42:00,
2013-04-17 17:43:00,49.5,48.4,29.95,North,0,3.0,6.0,96,0.57,,---,0.67,VWS V14.01,2013-04-17 22:43:00,
2013-04-17 17:44:00,49.5,48.4,29.92,North,358,4.0,7.0,96,0.57,,---,0.67,VWS V14.01,2013-04-17 22:44:00,
2013-04-17 17:48:00,49.4,48.3,29.92,North,6,2.0,7.0,96,0.57,,---,0.67,VWS V14.01,2013-04-17 22:48:00,
2013-04-17 17:50:00,49.2,48.1,29.92,NW,308,5.0,5.0,96,0.58,,---,0.68,VWS V14.01,2013-04-17 22:50:00,
2013-04-17 17:51:00,49.1,48.0,29.92,WNW,300,3.0,5.0,96,0.58,,---,0.68,VWS V14.01,2013-04-17 22:51:00,
2013-04-17 17:53:00,48.8,47.4,29.92,North,358,7.0,9.0,95,0.58,,---,0.68,VWS V14.01,2013-04-17 22:53:00,
2013-04-17 17:54:00,48.3,46.9,29.92,NW,325,4.0,7.0,95,0.58,,---,0.68,VWS V14.01,2013-04-17 22:54:00,
2013-04-17 17:55:00,48.0,46.6,29.92,North,358,6.0,7.0,95,0.58,,---,0.68,VWS V14.01,2013-04-17 22:55:00,
2013-04-17 17:58:00,47.1,45.5,29.92,NW,305,4.0,13.0,94,0.50,,---,0.68,VWS V14.01,2013-04-17 22:58:00,
2013-04-17 17:59:00,46.5,44.9,29.97,North,0,5.0,8.0,94,0.47,,---,0.68,VWS V14.01,2013-04-17 22:59:00,
2013-04-17 18:01:00,45.8,44.5,29.97,NW,319,2.0,6.0,95,0.52,,---,0.68,VWS V14.01,2013-04-17 23:01:00,
2013-04-17 18:02:00,45.5,44.2,29.97,NNE,12,7.0,7.0,95,0.35,,---,0.68,VWS V14.01,2013-04-17 23:02:00,
2013-04-17 18:04:00,45.2,43.9,29.97,NNE,32,9.0,9.0,95,0.31,,---,0.68,VWS V14.01,2013-04-17 23:04:00,
2013-04-17 18:07:00,44.5,43.2,29.97,NW,325,9.0,12.0,95,0.25,,---,0.68,VWS V14.01,2013-04-17 23:07:00,
2013-04-17 18:09:00,44.3,43.2,29.97,North,0,4.0,7.0,96,0.23,,---,0.68,VWS V14.01,2013-04-17 23:09:00,
2013-04-17 18:10:00,44.2,43.1,29.97,NW,315,7.0,7.0,96,0.21,,---,0.68,VWS V14.01,2013-04-17 23:10:00,
2013-04-17 18:14:00,44.1,43.0,29.96,North,6,6.0,11.0,96,0.20,,---,0.68,VWS V14.01,2013-04-17 23:14:00,
2013-04-17 18:15:00,44.1,43.0,29.96,North,3,9.0,9.0,96,0.20,,---,0.68,VWS V14.01,2013-04-17 23:15:00,
2013-04-17 18:16:00,44.1,43.0,29.96,North,4,4.0,8.0,96,0.20,,---,0.68,VWS V14.01,2013-04-17 23:16:00,
2013-04-17 18:20:00,44.2,43.4,29.96,NE,51,3.0,11.0,97,0.20,,---,0.68,VWS V14.01,2013-04-17 23:20:00,
2013-04-17 18:21:00,44.2,43.4,29.96,North,1,2.0,10.0,97,0.20,,---,0.68,VWS V14.01,2013-04-17 23:21:00,
2013-04-17 18:23:00,44.2,43.4,29.96,NNW,337,6.0,12.0,97,0.19,,---,0.68,VWS V14.01,2013-04-17 23:23:00,
2013-04-17 18:25:00,44.3,43.5,29.96,NE,39,3.0,9.0,97,0.18,,---,0.68,VWS V14.01,2013-04-17 23:25:00,
2013-04-17 18:28:00,44.5,43.7,29.96,South,185,3.0,3.0,97,0.16,,---,0.68,VWS V14.01,2013-04-17 23:28:00,
2013-04-17 18:29:00,44.5,43.7,29.89,ENE,75,4.0,7.0,97,0.14,,---,0.68,VWS V14.01,2013-04-17 23:29:00,
2013-04-17 18:30:00,44.5,43.7,29.89,North,1,7.0,7.0,97,0.11,,---,0.68,VWS V14.01,2013-04-17 23:30:00,
2013-04-17 18:33:00,44.6,43.8,29.89,NE,39,3.0,4.0,97,0.09,,---,0.68,VWS V14.01,2013-04-17 23:33:00,
2013-04-17 18:35:00,44.8,44.0,29.89,ENE,70,1.0,2.0,97,0.08,,---,0.68,VWS V14.01,2013-04-17 23:35:00,
2013-04-17 18:36:00,44.8,44.0,29.89,NE,42,1.0,4.0,97,0.03,,---,0.68,VWS V14.01,2013-04-17 23:36:00,
2013-04-17 18:39:00,44.9,44.1,29.89,ENE,73,0.0,1.0,97,0.02,,---,0.68,VWS V14.01,2013-04-17 23:39:00,
2013-04-17 18:40:00,44.9,44.1,29.89,East,87,3.0,3.0,97,0.02,,---,0.68,VWS V14.01,2013-04-17 23:40:00,
2013-04-17 18:43:00,45.1,44.6,29.89,East,96,2.0,4.0,98,0.01,,---,0.68,VWS V14.01,2013-04-17 23:43:00,
2013-04-17 18:45:00,45.2,44.7,29.88,SE,132,1.0,3.0,98,0.01,,---,0.68,VWS V14.01,2013-04-17 23:45:00,
2013-04-17 18:47:00,45.2,44.7,29.88,ESE,113,2.0,4.0,98,0.01,,---,0.68,VWS V14.01,2013-04-17 23:47:00,
2013-04-17 18:50:00,45.4,44.9,29.88,ESE,118,2.0,3.0,98,0.00,,---,0.68,VWS V14.01,2013-04-17 23:50:00,
2013-04-17 18:51:00,45.5,45.0,29.88,SSE,158,2.0,4.0,98,0.02,,---,0.70,VWS V14.01,2013-04-17 23:51:00,
2013-04-17 18:52:00,45.5,45.0,29.88,East,89,1.0,3.0,98,0.04,,---,0.72,VWS V14.01,2013-04-17 23:52:00,
2013-04-17 18:54:00,45.5,45.0,29.88,East,80,2.0,2.0,98,0.07,,---,0.75,VWS V14.01,2013-04-17 23:54:00,
2013-04-17 18:56:00,45.7,45.2,29.88,East,84,2.0,2.0,98,0.10,,---,0.78,VWS V14.01,2013-04-17 23:56:00,
2013-04-17 18:57:00,45.7,45.2,29.88,ENE,78,2.0,2.0,98,0.11,,---,0.79,VWS V14.01,2013-04-17 23:57:00,
2013-04-17 18:59:00,45.7,45.2,29.87,East,84,1.0,3.0,98,0.14,,---,0.82,VWS V14.01,2013-04-17 23:59:00,
2013-04-17 19:01:00,45.7,45.2,29.87,East,101,0.0,1.0,98,0.15,,---,0.83,VWS V14.01,2013-04-18 00:01:00,
2013-04-17 19:02:00,45.7,45.2,29.87,East,101,1.0,1.0,98,0.16,,---,0.84,VWS V14.01,2013-04-18 00:02:00,
2013-04-17 19:04:00,45.7,45.2,29.87,North,352,4.0,4.0,98,0.16,,---,0.84,VWS V14.01,2013-04-18 00:04:00,
2013-04-17 19:06:00,45.7,45.2,29.87,North,358,0.0,2.0,98,0.17,,---,0.85,VWS V14.01,2013-04-18 00:06:00,
2013-04-17 19:08:00,45.8,45.3,29.87,NNE,22,2.0,5.0,98,0.17,,---,0.85,VWS V14.01,2013-04-18 00:08:00,
2013-04-17 19:09:00,45.8,45.3,29.87,NNE,30,1.0,4.0,98,0.17,,---,0.85,VWS V14.01,2013-04-18 00:09:00,
2013-04-17 19:12:00,45.8,45.3,29.87,ENE,75,1.0,3.0,98,0.17,,---,0.85,VWS V14.01,2013-04-18 00:12:00,
2013-04-17 19:13:00,45.8,45.3,29.87,East,96,2.0,6.0,98,0.17,,---,0.85,VWS V14.01,2013-04-18 00:13:00,
2013-04-17 19:14:00,45.8,45.3,29.85,East,98,1.0,2.0,98,0.17,,---,0.85,VWS V14.01,2013-04-18 00:14:00,
2013-04-17 19:15:00,46.0,45.5,29.85,East,91,0.0,3.0,98,0.17,,---,0.85,VWS V14.01,2013-04-18 00:15:00,
2013-04-17 19:17:00,46.0,45.5,29.85,ESE,105,2.0,3.0,98,0.17,,---,0.85,VWS V14.01,2013-04-18 00:17:00,
2013-04-17 19:20:00,46.1,45.6,29.85,East,98,1.0,2.0,98,0.17,,---,0.85,VWS V14.01,2013-04-18 00:20:00,
2013-04-17 19:21:00,46.1,45.6,29.85,East,84,1.0,3.0,98,0.17,,---,0.85,VWS V14.01,2013-04-18 00:21:00,
2013-04-17 19:22:00,46.1,45.6,29.85,ESE,105,0.0,0.0,98,0.17,,---,0.85,VWS V14.01,2013-04-18 00:22:00,
2013-04-17 19:23:00,46.1,45.6,29.85,East,94,2.0,2.0,98,0.17,,---,0.85,VWS V14.01,2013-04-18 00:23:00,
2013-04-17 19:25:00,46.2,45.7,29.85,ESE,107,0.0,0.0,98,0.17,,---,0.85,VWS V14.01,2013-04-18 00:25:00,
2013-04-17 19:26:00,46.2,45.7,29.85,ESE,107,0.0,1.0,98,0.17,,---,0.85,VWS V14.01,2013-04-18 00:26:00,
2013-04-17 19:27:00,46.2,45.7,29.85,East,93,1.0,4.0,98,0.17,,---,0.85,VWS V14.01,2013-04-18 00:27:00,
2013-04-17 19:28:00,46.2,45.7,29.85,East,93,0.0,4.0,98,0.17,,---,0.85,VWS V14.01,2013-04-18 00:28:00,
2013-04-17 19:30:00,46.2,45.7,29.84,East,85,0.0,1.0,98,0.17,,---,0.85,VWS V14.01,2013-04-18 00:30:00,
2013-04-17 19:32:00,46.4,45.9,29.84,WNW,287,0.0,0.0,98,0.17,,---,0.85,VWS V14.01,2013-04-18 00:32:00,
2013-04-17 19:33:00,46.4,45.9,29.84,WNW,287,0.0,1.0,98,0.17,,---,0.85,VWS V14.01,2013-04-18 00:33:00,
2013-04-17 19:34:00,46.4,45.9,29.84,WNW,287,0.0,1.0,98,0.17,,---,0.85,VWS V14.01,2013-04-18 00:34:00,
2013-04-17 19:36:00,46.4,45.9,29.84,SE,135,2.0,2.0,98,0.17,,---,0.85,VWS V14.01,2013-04-18 00:36:00,
2013-04-17 19:37:00,46.4,45.9,29.84,East,101,0.0,1.0,98,0.17,,---,0.85,VWS V14.01,2013-04-18 00:37:00,
2013-04-17 19:40:00,46.4,45.9,29.84,ESE,110,0.0,3.0,98,0.17,,---,0.85,VWS V14.01,2013-04-18 00:40:00,
2013-04-17 19:41:00,46.4,45.9,29.84,East,91,1.0,4.0,98,0.17,,---,0.85,VWS V14.01,2013-04-18 00:41:00,
2013-04-17 19:42:00,46.4,45.9,29.84,ESE,103,2.0,2.0,98,0.17,,---,0.85,VWS V14.01,2013-04-18 00:42:00,
2013-04-17 19:43:00,46.4,45.9,29.82,ENE,76,0.0,1.0,98,0.17,,---,0.85,VWS V14.01,2013-04-18 00:43:00,
2013-04-17 19:47:00,46.4,45.9,29.82,ESE,106,0.0,4.0,98,0.17,,---,0.85,VWS V14.01,2013-04-18 00:47:00,
2013-04-17 19:48:00,46.4,45.9,29.82,East,89,3.0,5.0,98,0.17,,---,0.85,VWS V14.01,2013-04-18 00:48:00,
2013-04-17 19:49:00,46.4,45.9,29.82,East,94,0.0,4.0,98,0.17,,---,0.85,VWS V14.01,2013-04-18 00:49:00,
2013-04-17 19:50:00,46.4,45.9,29.82,ESE,111,1.0,2.0,98,0.17,,---,0.85,VWS V14.01,2013-04-18 00:50:00,
2013-04-17 19:53:00,46.4,45.9,29.82,ESE,108,2.0,4.0,98,0.13,,---,0.85,VWS V14.01,2013-04-18 00:53:00,
2013-04-17 19:56:00,46.4,45.9,29.82,ESE,106,2.0,3.0,98,0.09,,---,0.85,VWS V14.01,2013-04-18 00:56:00,
2013-04-17 19:57:00,46.4,45.9,29.82,East,85,4.0,4.0,98,0.07,,---,0.85,VWS V14.01,2013-04-18 00:57:00,
2013-04-17 19:58:00,46.4,45.9,29.82,East,82,5.0,5.0,98,0.06,,---,0.85,VWS V14.01,2013-04-18 00:58:00,
2013-04-17 20:01:00,46.2,45.7,29.82,East,93,2.0,3.0,98,0.03,,---,0.86,VWS V14.01,2013-04-18 01:01:00,
2013-04-17 20:02:00,46.2,45.7,29.82,East,93,1.0,3.0,98,0.03,,---,0.86,VWS V14.01,2013-04-18 01:02:00,
2013-04-17 20:04:00,46.2,45.7,29.82,ESE,113,3.0,4.0,98,0.02,,---,0.86,VWS V14.01,2013-04-18 01:04:00,
2013-04-17 20:05:00,46.2,45.7,29.82,SE,139,2.0,3.0,98,0.02,,---,0.86,VWS V14.01,2013-04-18 01:05:00,
2013-04-17 20:06:00,46.2,45.7,29.82,East,101,2.0,3.0,98,0.01,,---,0.86,VWS V14.01,2013-04-18 01:06:00,
2013-04-17 20:09:00,46.2,45.7,29.82,East,101,1.0,1.0,98,0.01,,---,0.86,VWS V14.01,2013-04-18 01:09:00,
2013-04-17 20:11:00,46.2,45.9,29.82,ESE,105,3.0,3.0,99,0.01,,---,0.86,VWS V14.01,2013-04-18 01:11:00,
2013-04-17 20:12:00,46.2,45.9,29.82,East,86,3.0,4.0,99,0.01,,---,0.86,VWS V14.01,2013-04-18 01:12:00,
2013-04-17 20:14:00,46.2,45.9,29.81,ESE,110,2.0,4.0,99,0.01,,---,0.86,VWS V14.01,2013-04-18 01:14:00,
2013-04-17 20:15:00,46.2,45.9,29.81,ESE,110,2.0,5.0,99,0.01,,---,0.86,VWS V14.01,2013-04-18 01:15:00,
2013-04-17 20:17:00,46.2,45.9,29.81,SE,128,4.0,4.0,99,0.01,,---,0.86,VWS V14.01,2013-04-18 01:17:00,
2013-04-17 20:18:00,46.2,45.9,29.81,East,96,1.0,4.0,99,0.01,,---,0.86,VWS V14.01,2013-04-18 01:18:00,
2013-04-17 20:19:00,46.2,45.9,29.81,SSE,155,3.0,3.0,99,0.01,,---,0.86,VWS V14.01,2013-04-18 01:19:00,
2013-04-17 20:20:00,46.2,45.9,29.81,East,86,2.0,4.0,99,0.01,,---,0.86,VWS V14.01,2013-04-18 01:20:00,
2013-04-17 20:21:00,46.2,45.9,29.81,East,79,0.0,1.0,99,0.01,,---,0.86,VWS V14.01,2013-04-18 01:21:00,
2013-04-17 20:24:00,46.4,46.1,29.81,East,89,0.0,1.0,99,0.01,,---,0.86,VWS V14.01,2013-04-18 01:24:00,
2013-04-17 20:27:00,46.4,46.1,29.81,East,101,3.0,3.0,99,0.01,,---,0.86,VWS V14.01,2013-04-18 01:27:00,
2013-04-17 20:29:00,46.4,46.1,29.80,East,101,3.0,3.0,99,0.01,,---,0.86,VWS V14.01,2013-04-18 01:29:00,
2013-04-17 20:31:00,46.4,46.1,29.80,ESE,104,1.0,4.0,99,0.01,,---,0.86,VWS V14.01,2013-04-18 01:31:00,
2013-04-17 20:33:00,46.4,46.1,29.80,East,89,2.0,4.0,99,0.01,,---,0.86,VWS V14.01,2013-04-18 01:33:00,
2013-04-17 20:35:00,46.4,46.1,29.80,SE,135,0.0,4.0,99,0.01,,---,0.86,VWS V14.01,2013-04-18 01:35:00,
2013-04-17 20:36:00,46.4,46.1,29.80,ESE,115,2.0,2.0,99,0.01,,---,0.86,VWS V14.01,2013-04-18 01:36:00,
2013-04-17 20:37:00,46.4,46.1,29.80,ESE,108,0.0,4.0,99,0.01,,---,0.86,VWS V14.01,2013-04-18 01:37:00,
2013-04-17 20:40:00,46.4,46.1,29.80,ESE,104,3.0,4.0,99,0.01,,---,0.86,VWS V14.01,2013-04-18 01:40:00,
2013-04-17 20:42:00,46.4,46.1,29.80,SE,132,5.0,6.0,99,0.01,,---,0.86,VWS V14.01,2013-04-18 01:42:00,
2013-04-17 20:43:00,46.4,46.1,29.80,ESE,117,3.0,5.0,99,0.01,,---,0.86,VWS V14.01,2013-04-18 01:43:00,
2013-04-17 20:46:00,46.4,46.1,29.81,SE,127,4.0,5.0,99,0.01,,---,0.86,VWS V14.01,2013-04-18 01:46:00,
2013-04-17 20:47:00,46.4,46.1,29.81,ESE,103,3.0,5.0,99,0.01,,---,0.86,VWS V14.01,2013-04-18 01:47:00,
2013-04-17 20:48:00,46.4,46.1,29.81,East,83,2.0,3.0,99,0.01,,---,0.86,VWS V14.01,2013-04-18 01:48:00,
2013-04-17 20:49:00,46.4,46.1,29.81,East,100,1.0,6.0,99,0.01,,---,0.86,VWS V14.01,2013-04-18 01:49:00,
2013-04-17 20:52:00,46.5,46.2,29.81,SE,127,0.0,4.0,99,0.01,,---,0.86,VWS V14.01,2013-04-18 01:52:00,
2013-04-17 20:54:00,46.5,46.2,29.81,East,86,0.0,3.0,99,0.01,,---,0.86,VWS V14.01,2013-04-18 01:54:00,
2013-04-17 20:55:00,46.5,46.2,29.81,NE,56,4.0,8.0,99,0.01,,---,0.86,VWS V14.01,2013-04-18 01:55:00,
2013-04-17 20:58:00,46.7,46.4,29.81,ESE,118,2.0,5.0,99,0.01,,---,0.86,VWS V14.01,2013-04-18 01:58:00,
2013-04-17 21:00:00,46.7,46.4,29.81,ENE,61,6.0,6.0,99,0.00,,---,0.86,VWS V14.01,2013-04-18 02:00:00,
2013-04-17 21:01:00,46.7,46.4,29.81,East,94,3.0,7.0,99,0.00,,---,0.86,VWS V14.01,2013-04-18 02:01:00,
2013-04-17 21:02:00,46.8,46.5,29.81,SE,126,3.0,5.0,99,0.00,,---,0.86,VWS V14.01,2013-04-18 02:02:00,
2013-04-17 21:04:00,46.8,46.5,29.81,SE,124,7.0,13.0,99,0.00,,---,0.86,VWS V14.01,2013-04-18 02:04:00,
2013-04-17 21:05:00,46.8,46.5,29.81,East,93,3.0,4.0,99,0.00,,---,0.86,VWS V14.01,2013-04-18 02:05:00,
2013-04-17 21:07:00,47.0,46.7,29.81,SE,125,3.0,6.0,99,0.00,,---,0.86,VWS V14.01,2013-04-18 02:07:00,
2013-04-17 21:08:00,47.0,46.7,29.81,ESE,120,3.0,6.0,99,0.01,,---,0.87,VWS V14.01,2013-04-18 02:08:00,
2013-04-17 21:12:00,47.1,46.8,29.81,ESE,116,5.0,6.0,99,0.12,,---,0.98,VWS V14.01,2013-04-18 02:12:00,
2013-04-17 21:15:00,47.1,46.8,29.85,SE,144,4.0,6.0,99,0.13,,---,0.99,VWS V14.01,2013-04-18 02:15:00,
2013-04-17 21:19:00,47.3,47.0,29.85,East,96,2.0,5.0,99,0.14,,---,1.00,VWS V14.01,2013-04-18 02:19:00,
2013-04-17 21:20:00,47.3,47.0,29.85,ESE,113,2.0,3.0,99,0.14,,---,1.00,VWS V14.01,2013-04-18 02:20:00,
2013-04-17 21:21:00,47.3,47.0,29.85,East,98,3.0,3.0,99,0.14,,---,1.00,VWS V14.01,2013-04-18 02:21:00,
2013-04-17 21:23:00,47.3,47.0,29.85,East,100,0.0,1.0,99,0.14,,---,1.00,VWS V14.01,2013-04-18 02:23:00,
2013-04-17 21:24:00,47.3,47.0,29.85,East,100,0.0,1.0,99,0.14,,---,1.00,VWS V14.01,2013-04-18 02:24:00,
2013-04-17 21:25:00,47.3,47.0,29.85,SE,129,1.0,3.0,99,0.14,,---,1.00,VWS V14.01,2013-04-18 02:25:00,
2013-04-17 21:28:00,47.3,47.0,29.85,East,83,0.0,1.0,99,0.14,,---,1.00,VWS V14.01,2013-04-18 02:28:00,
2013-04-17 21:29:00,47.3,47.0,29.81,East,83,0.0,2.0,99,0.14,,---,1.00,VWS V14.01,2013-04-18 02:29:00,
2013-04-17 21:30:00,47.3,47.0,29.81,East,83,0.0,0.0,99,0.14,,---,1.00,VWS V14.01,2013-04-18 02:30:00,
2013-04-17 21:31:00,47.3,47.0,29.81,East,83,0.0,0.0,99,0.14,,---,1.00,VWS V14.01,2013-04-18 02:31:00,
2013-04-17 21:34:00,47.3,47.0,29.81,SE,128,0.0,0.0,99,0.14,,---,1.00,VWS V14.01,2013-04-18 02:34:00,
2013-04-17 21:35:00,47.3,47.0,29.81,SE,128,0.0,0.0,99,0.15,,---,1.01,VWS V14.01,2013-04-18 02:35:00,
2013-04-17 21:37:00,47.3,47.0,29.81,NNW,342,1.0,2.0,99,0.15,,---,1.01,VWS V14.01,2013-04-18 02:37:00,
2013-04-17 21:39:00,47.3,47.0,29.81,NNW,342,0.0,1.0,99,0.16,,---,1.02,VWS V14.01,2013-04-18 02:39:00,
2013-04-17 21:42:00,47.3,47.0,29.81,NNW,342,0.0,0.0,99,0.16,,---,1.02,VWS V14.01,2013-04-18 02:42:00,
2013-04-17 21:44:00,47.3,47.0,29.79,NNW,342,0.0,0.0,99,0.16,,---,1.02,VWS V14.01,2013-04-18 02:44:00,
2013-04-17 21:45:00,47.3,47.0,29.79,NNW,342,0.0,0.0,99,0.16,,---,1.02,VWS V14.01,2013-04-18 02:45:00,
2013-04-17 21:46:00,47.3,47.0,29.79,East,93,0.0,1.0,99,0.16,,---,1.02,VWS V14.01,2013-04-18 02:46:00,
2013-04-17 21:48:00,47.3,47.0,29.79,North,0,1.0,1.0,99,0.16,,---,1.02,VWS V14.01,2013-04-18 02:48:00,
2013-04-17 21:49:00,47.3,47.0,29.79,East,98,1.0,2.0,99,0.16,,---,1.02,VWS V14.01,2013-04-18 02:49:00,
2013-04-17 21:50:00,47.3,47.0,29.79,East,98,0.0,1.0,99,0.16,,---,1.02,VWS V14.01,2013-04-18 02:50:00,
2013-04-17 21:51:00,47.3,47.0,29.79,East,98,0.0,0.0,99,0.16,,---,1.02,VWS V14.01,2013-04-18 02:51:00,
2013-04-17 21:53:00,47.3,47.0,29.79,East,98,0.0,0.0,99,0.16,,---,1.02,VWS V14.01,2013-04-18 02:53:00,
2013-04-17 21:55:00,47.3,47.0,29.79,ESE,122,0.0,1.0,99,0.16,,---,1.02,VWS V14.01,2013-04-18 02:55:00,
2013-04-17 21:56:00,47.3,47.0,29.79,East,91,0.0,1.0,99,0.16,,---,1.02,VWS V14.01,2013-04-18 02:56:00,
2013-04-17 21:58:00,47.3,47.0,29.79,East,91,0.0,1.0,99,0.16,,---,1.02,VWS V14.01,2013-04-18 02:58:00,
2013-04-17 21:59:00,47.1,46.8,29.78,ESE,117,2.0,3.0,99,0.16,,---,1.02,VWS V14.01,2013-04-18 02:59:00,
2013-04-17 22:01:00,47.1,46.8,29.78,ESE,116,0.0,1.0,99,0.16,,---,1.02,VWS V14.01,2013-04-18 03:01:00,
2013-04-17 22:03:00,47.1,46.8,29.78,ESE,120,2.0,2.0,99,0.16,,---,1.02,VWS V14.01,2013-04-18 03:03:00,
2013-04-17 22:04:00,47.3,47.0,29.78,SSE,152,2.0,3.0,99,0.16,,---,1.02,VWS V14.01,2013-04-18 03:04:00,
2013-04-17 22:07:00,47.3,47.0,29.78,East,89,3.0,3.0,99,0.16,,---,1.02,VWS V14.01,2013-04-18 03:07:00,
2013-04-17 22:09:00,47.3,47.0,29.78,SE,124,0.0,4.0,99,0.16,,---,1.03,VWS V14.01,2013-04-18 03:09:00,
2013-04-17 22:11:00,47.3,47.0,29.78,SE,127,2.0,3.0,99,0.10,,---,1.03,VWS V14.01,2013-04-18 03:11:00,
2013-04-17 22:12:00,47.3,47.0,29.78,East,91,0.0,0.0,99,0.05,,---,1.03,VWS V14.01,2013-04-18 03:12:00,
2013-04-17 22:13:00,47.3,47.0,29.78,East,100,3.0,3.0,99,0.04,,---,1.03,VWS V14.01,2013-04-18 03:13:00,
2013-04-17 22:15:00,47.4,47.1,29.76,ESE,102,0.0,1.0,99,0.04,,---,1.03,VWS V14.01,2013-04-18 03:15:00,
2013-04-17 22:16:00,47.4,47.1,29.76,East,83,0.0,4.0,99,0.04,,---,1.03,VWS V14.01,2013-04-18 03:16:00,
2013-04-17 22:17:00,47.4,47.1,29.76,ENE,74,3.0,3.0,99,0.03,,---,1.03,VWS V14.01,2013-04-18 03:17:00,
2013-04-17 22:18:00,47.4,47.1,29.76,East,98,2.0,3.0,99,0.03,,---,1.03,VWS V14.01,2013-04-18 03:18:00,
2013-04-17 22:21:00,47.4,47.1,29.76,East,89,0.0,0.0,99,0.03,,---,1.03,VWS V14.01,2013-04-18 03:21:00,
2013-04-17 22:22:00,47.4,47.1,29.76,East,89,0.0,0.0,99,0.03,,---,1.03,VWS V14.01,2013-04-18 03:22:00,
2013-04-17 22:23:00,47.4,47.1,29.76,East,94,2.0,2.0,99,0.03,,---,1.03,VWS V14.01,2013-04-18 03:23:00,
2013-04-17 22:24:00,47.4,47.1,29.76,East,94,0.0,0.0,99,0.03,,---,1.03,VWS V14.01,2013-04-18 03:24:00,
2013-04-17 22:26:00,47.4,47.1,29.76,East,94,0.0,0.0,99,0.03,,---,1.03,VWS V14.01,2013-04-18 03:26:00,
2013-04-17 22:27:00,47.4,47.1,29.76,East,94,0.0,0.0,99,0.03,,---,1.03,VWS V14.01,2013-04-18 03:27:00,
2013-04-17 22:28:00,47.4,47.1,29.75,East,94,0.0,0.0,99,0.03,,---,1.03,VWS V14.01,2013-04-18 03:28:00,
2013-04-17 22:29:00,47.4,47.1,29.75,East,94,1.0,1.0,99,0.03,,---,1.03,VWS V14.01,2013-04-18 03:29:00,
2013-04-17 22:31:00,47.4,47.1,29.75,East,94,0.0,1.0,99,0.03,,---,1.03,VWS V14.01,2013-04-18 03:31:00,
2013-04-17 22:32:00,47.6,47.3,29.75,SE,127,3.0,3.0,99,0.03,,---,1.03,VWS V14.01,2013-04-18 03:32:00,
2013-04-17 22:34:00,47.6,47.3,29.75,East,92,1.0,3.0,99,0.03,,---,1.03,VWS V14.01,2013-04-18 03:34:00,
2013-04-17 22:36:00,47.7,47.4,29.75,SE,143,2.0,3.0,99,0.03,,---,1.04,VWS V14.01,2013-04-18 03:36:00,
2013-04-17 22:37:00,47.9,47.6,29.75,NNE,25,1.0,4.0,99,0.03,,---,1.04,VWS V14.01,2013-04-18 03:37:00,
2013-04-17 22:38:00,47.9,47.6,29.75,ESE,105,3.0,4.0,99,0.03,,---,1.04,VWS V14.01,2013-04-18 03:38:00,
2013-04-17 22:39:00,47.9,47.6,29.75,ESE,104,0.0,3.0,99,0.02,,---,1.04,VWS V14.01,2013-04-18 03:39:00,
2013-04-17 22:42:00,48.0,47.7,29.75,ENE,71,3.0,6.0,99,0.02,,---,1.04,VWS V14.01,2013-04-18 03:42:00,
2013-04-17 22:44:00,48.0,47.7,29.75,SE,134,3.0,4.0,99,0.02,,---,1.04,VWS V14.01,2013-04-18 03:44:00,
2013-04-17 22:45:00,48.0,47.7,29.75,SE,135,0.0,3.0,99,0.02,,---,1.04,VWS V14.01,2013-04-18 03:45:00,
2013-04-17 22:47:00,48.2,47.9,29.75,ESE,105,2.0,4.0,99,0.02,,---,1.04,VWS V14.01,2013-04-18 03:47:00,
2013-04-17 22:50:00,48.3,48.0,29.75,SE,127,1.0,3.0,99,0.02,,---,1.04,VWS V14.01,2013-04-18 03:50:00,
2013-04-17 22:51:00,48.3,48.0,29.75,ESE,120,1.0,4.0,99,0.02,,---,1.04,VWS V14.01,2013-04-18 03:51:00,
2013-04-17 22:52:00,48.5,48.2,29.75,ESE,114,2.0,3.0,99,0.02,,---,1.04,VWS V14.01,2013-04-18 03:52:00,
2013-04-17 22:55:00,48.6,48.3,29.75,ESE,117,0.0,0.0,99,0.02,,---,1.04,VWS V14.01,2013-04-18 03:55:00,
2013-04-17 22:56:00,48.6,48.3,29.75,ESE,117,0.0,0.0,99,0.02,,---,1.04,VWS V14.01,2013-04-18 03:56:00,
2013-04-17 22:57:00,48.6,48.3,29.75,SE,131,2.0,5.0,99,0.02,,---,1.04,VWS V14.01,2013-04-18 03:57:00,
2013-04-17 22:58:00,48.6,48.3,29.75,ESE,114,1.0,2.0,99,0.02,,---,1.04,VWS V14.01,2013-04-18 03:58:00,
2013-04-17 23:01:00,48.8,48.5,29.74,ESE,113,1.0,4.0,99,0.02,,---,1.04,VWS V14.01,2013-04-18 04:01:00,
2013-04-17 23:02:00,48.8,48.8,29.74,SE,137,1.0,2.0,100,0.02,,---,1.04,VWS V14.01,2013-04-18 04:02:00,
2013-04-17 23:03:00,48.9,48.9,29.74,East,89,3.0,3.0,100,0.02,,---,1.04,VWS V14.01,2013-04-18 04:03:00,
2013-04-17 23:04:00,48.9,48.9,29.74,East,94,1.0,3.0,100,0.02,,---,1.04,VWS V14.01,2013-04-18 04:04:00,
2013-04-17 23:06:00,49.1,49.1,29.74,NE,56,4.0,4.0,100,0.02,,---,1.04,VWS V14.01,2013-04-18 04:06:00,
2013-04-17 23:07:00,49.1,49.1,29.74,East,91,4.0,5.0,100,0.02,,---,1.04,VWS V14.01,2013-04-18 04:07:00,
2013-04-17 23:08:00,49.1,49.1,29.74,ESE,103,3.0,6.0,100,0.02,,---,1.04,VWS V14.01,2013-04-18 04:08:00,
2013-04-17 23:09:00,49.1,49.1,29.74,East,98,4.0,7.0,100,0.01,,---,1.04,VWS V14.01,2013-04-18 04:09:00,
2013-04-17 23:12:00,49.2,49.2,29.74,East,95,1.0,5.0,100,0.01,,---,1.04,VWS V14.01,2013-04-18 04:12:00,
2013-04-17 23:13:00,49.2,49.2,29.74,East,91,4.0,4.0,100,0.01,,---,1.04,VWS V14.01,2013-04-18 04:13:00,
2013-04-17 23:14:00,49.2,49.2,29.73,SE,136,2.0,4.0,100,0.01,,---,1.04,VWS V14.01,2013-04-18 04:14:00,
2013-04-17 23:15:00,49.2,49.2,29.73,East,91,2.0,3.0,100,0.01,,---,1.04,VWS V14.01,2013-04-18 04:15:00,
2013-04-17 23:16:00,49.2,49.2,29.73,East,82,4.0,4.0,100,0.01,,---,1.04,VWS V14.01,2013-04-18 04:16:00,
2013-04-17 23:18:00,49.2,49.2,29.73,SE,136,2.0,4.0,100,0.01,,---,1.04,VWS V14.01,2013-04-18 04:18:00,
2013-04-17 23:20:00,49.2,49.2,29.73,East,90,4.0,4.0,100,0.01,,---,1.04,VWS V14.01,2013-04-18 04:20:00,
2013-04-17 23:22:00,49.2,49.2,29.73,East,93,4.0,4.0,100,0.01,,---,1.04,VWS V14.01,2013-04-18 04:22:00,
2013-04-17 23:25:00,49.4,49.4,29.73,East,94,1.0,2.0,100,0.01,,---,1.04,VWS V14.01,2013-04-18 04:25:00,
2013-04-17 23:26:00,49.4,49.4,29.73,ESE,122,2.0,3.0,100,0.01,,---,1.04,VWS V14.01,2013-04-18 04:26:00,
2013-04-17 23:27:00,49.4,49.4,29.73,East,91,0.0,1.0,100,0.01,,---,1.04,VWS V14.01,2013-04-18 04:27:00,
2013-04-17 23:28:00,49.4,49.4,29.73,SE,136,2.0,4.0,100,0.01,,---,1.04,VWS V14.01,2013-04-18 04:28:00,
2013-04-17 23:31:00,49.5,49.5,29.71,North,4,0.0,1.0,100,0.01,,---,1.04,VWS V14.01,2013-04-18 04:31:00,
2013-04-17 23:32:00,49.5,49.5,29.71,North,0,1.0,2.0,100,0.01,,---,1.04,VWS V14.01,2013-04-18 04:32:00,
2013-04-17 23:33:00,49.5,49.5,29.71,NW,325,2.0,3.0,100,0.01,,---,1.04,VWS V14.01,2013-04-18 04:33:00,
2013-04-17 23:34:00,49.6,49.6,29.71,NW,323,2.0,3.0,100,0.01,,---,1.04,VWS V14.01,2013-04-18 04:34:00,
2013-04-17 23:36:00,49.6,49.6,29.71,NW,323,5.0,6.0,100,0.00,,---,1.04,VWS V14.01,2013-04-18 04:36:00,
2013-04-17 23:38:00,49.8,49.8,29.71,NW,310,3.0,4.0,100,0.00,,---,1.04,VWS V14.01,2013-04-18 04:38:00,
2013-04-17 23:39:00,49.8,49.8,29.71,West,266,4.0,5.0,100,0.00,,---,1.04,VWS V14.01,2013-04-18 04:39:00,
2013-04-17 23:40:00,49.8,49.8,29.71,West,259,4.0,6.0,100,0.00,,---,1.04,VWS V14.01,2013-04-18 04:40:00,
2013-04-17 23:42:00,49.6,49.6,29.71,East,98,3.0,3.0,100,0.00,,---,1.04,VWS V14.01,2013-04-18 04:42:00,
2013-04-17 23:44:00,49.6,49.6,29.71,ESE,107,4.0,4.0,100,0.00,,---,1.04,VWS V14.01,2013-04-18 04:44:00,
2013-04-17 23:45:00,49.6,49.6,29.71,ESE,105,1.0,4.0,100,0.00,,---,1.04,VWS V14.01,2013-04-18 04:45:00,
2013-04-17 23:47:00,49.8,49.8,29.71,East,91,1.0,2.0,100,0.00,,---,1.04,VWS V14.01,2013-04-18 04:47:00,
2013-04-17 23:48:00,49.8,49.8,29.71,East,96,1.0,2.0,100,0.00,,---,1.04,VWS V14.01,2013-04-18 04:48:00,
2013-04-17 23:50:00,50.1,50.1,29.71,ESE,106,2.0,4.0,100,0.00,,---,1.04,VWS V14.01,2013-04-18 04:50:00,
2013-04-17 23:51:00,50.2,50.2,29.71,ENE,66,5.0,5.0,100,0.00,,---,1.04,VWS V14.01,2013-04-18 04:51:00,
2013-04-17 23:52:00,50.4,50.4,29.71,SE,127,6.0,6.0,100,0.00,,---,1.04,VWS V14.01,2013-04-18 04:52:00,
2013-04-17 23:53:00,50.5,50.5,29.71,ESE,110,2.0,4.0,100,0.00,,---,1.04,VWS V14.01,2013-04-18 04:53:00,
2013-04-17 23:54:00,50.5,50.5,29.71,ESE,122,2.0,4.0,100,0.00,,---,1.04,VWS V14.01,2013-04-18 04:54:00,
2013-04-17 23:55:00,50.7,50.7,29.71,SSE,155,2.0,4.0,100,0.00,,---,1.04,VWS V14.01,2013-04-18 04:55:00,
2013-04-17 23:57:00,50.7,50.7,29.71,ESE,113,3.0,7.0,100,0.00,,---,1.04,VWS V14.01,2013-04-18 04:57:00,